| time (UTC) | temp C | wind direction | speed KPH | gust KPH | rain 1hr cm | rain 24hr cm | rain mn cm | humidity % | barometer mb |
| 20260505184811 | 1 | 30 | 6.4 | 14.5 | 0.10 | 1.04 | 0.66 | 96 | 1013.1 |
| 20260505184703 | 1 | 44 | 6.4 | 14.5 | 0.10 | 1.04 | 0.66 | 96 | 1013.2 |
| 20260505184613 | 1 | 50 | 6.4 | 14.5 | 0.10 | 1.04 | 0.66 | 96 | 1013.2 |
| 20260505184412 | 1 | 42 | 6.4 | 14.5 | 0.10 | 1.04 | 0.66 | 96 | 1013.2 |
| 20260505184213 | 1 | 40 | 6.4 | 14.5 | 0.10 | 1.04 | 0.66 | 96 | 1013.2 |
| 20260505184205 | 1 | 36 | 6.4 | 14.5 | 0.10 | 1.04 | 0.66 | 96 | 1013.2 |
| 20260505184012 | 1 | 79 | 6.4 | 14.5 | 0.10 | 1.04 | 0.66 | 96 | 1013.2 |
| 20260505183813 | 1 | 45 | 6.4 | 14.5 | 0.10 | 1.04 | 0.66 | 96 | 1013.2 |
| 20260505183704 | 1 | 45 | 6.4 | 14.5 | 0.10 | 1.04 | 0.66 | 96 | 1013.2 |
| 20260505183613 | 1 | 55 | 8.0 | 14.5 | 0.10 | 1.04 | 0.66 | 96 | 1013.2 |
| 20260505183412 | 1 | 52 | 8.0 | 14.5 | 0.10 | 1.04 | 0.66 | 96 | 1013.2 |
| 20260505183214 | 1 | 51 | 8.0 | 16.1 | 0.10 | 1.04 | 0.66 | 96 | 1013.2 |
| 20260505183205 | 1 | 44 | 8.0 | 16.1 | 0.10 | 1.04 | 0.66 | 96 | 1013.2 |
| 20260505183013 | 1 | 50 | 8.0 | 16.1 | 0.10 | 1.04 | 0.66 | 96 | 1013.2 |
| 20260505182704 | 1 | 34 | 8.0 | 16.1 | 0.10 | 1.04 | 0.66 | 96 | 1013.4 |
| 20260505182614 | 1 | 49 | 8.0 | 16.1 | 0.08 | 1.02 | 0.66 | 96 | 1013.2 |
| 20260505182411 | 1 | 39 | 6.4 | 16.1 | 0.08 | 1.02 | 0.64 | 96 | 1013.2 |
| 20260505182213 | 1 | 62 | 6.4 | 12.9 | 0.08 | 1.02 | 0.64 | 96 | 1013.2 |
| 20260505182203 | 1 | 30 | 6.4 | 12.9 | 0.08 | 1.02 | 0.64 | 96 | 1013.2 |
| 20260505182009 | 1 | 37 | 6.4 | 12.9 | 0.08 | 1.02 | 0.64 | 96 | 1013.2 |
| 20260505181810 | 1 | 22 | 4.8 | 12.9 | 0.08 | 1.02 | 0.64 | 96 | 1013.4 |
| 20260505181702 | 1 | 46 | 4.8 | 12.9 | 0.08 | 1.02 | 0.64 | 96 | 1013.4 |
| 20260505181610 | 1 | 52 | 6.4 | 12.9 | 0.08 | 1.02 | 0.64 | 96 | 1013.4 |
| 20260505181410 | 1 | 58 | 6.4 | 12.9 | 0.05 | 0.99 | 0.61 | 96 | 1013.5 |
| 20260505181210 | 1 | 34 | 6.4 | 12.9 | 0.05 | 0.99 | 0.61 | 96 | 1013.4 |
| 20260505181203 | 1 | 26 | 6.4 | 12.9 | 0.05 | 0.99 | 0.61 | 96 | 1013.4 |
| 20260505181011 | 1 | 47 | 6.4 | 12.9 | 0.05 | 0.99 | 0.61 | 96 | 1013.5 |
| 20260505180809 | 1 | 49 | 6.4 | 12.9 | 0.05 | 0.99 | 0.61 | 96 | 1013.5 |
| 20260505180702 | 1 | 53 | 6.4 | 12.9 | 0.05 | 0.99 | 0.61 | 96 | 1013.6 |
| 20260505180608 | 1 | 64 | 6.4 | 12.9 | 0.05 | 0.99 | 0.61 | 96 | 1013.6 |
| 20260505180408 | 1 | 55 | 6.4 | 14.5 | 0.05 | 0.99 | 0.61 | 96 | 1013.6 |
| 20260505180212 | 1 | 49 | 6.4 | 14.5 | 0.05 | 0.99 | 0.61 | 96 | 1013.6 |
| 20260505180207 | 1 | 62 | 8.0 | 14.5 | 0.03 | 0.97 | 0.58 | 96 | 1013.7 |
| 20260505180202 | 1 | 51 | 6.4 | 14.5 | 0.05 | 0.99 | 0.61 | 96 | 1013.6 |
| 20260505180008 | 1 | 49 | 6.4 | 14.5 | 0.03 | 0.97 | 0.61 | 96 | 1013.6 |
| 20260505175820 | 1 | 54 | 8.0 | 14.5 | 0.03 | 0.97 | 0.58 | 96 | 1013.7 |
| 20260505175607 | 1 | 72 | 6.4 | 14.5 | 0.03 | 0.97 | 0.58 | 96 | 1013.7 |
| 20260505175408 | 1 | 71 | 6.4 | 14.5 | 0.05 | 0.97 | 0.58 | 96 | 1013.7 |
| 20260505175208 | 1 | 49 | 6.4 | 14.5 | 0.05 | 0.97 | 0.58 | 96 | 1013.7 |
| 20260505175201 | 1 | 28 | 8.0 | 14.5 | 0.05 | 0.97 | 0.58 | 96 | 1013.7 |
| 20260505175007 | 1 | 75 | 8.0 | 14.5 | 0.03 | 0.94 | 0.56 | 96 | 1013.7 |
| 20260505174807 | 1 | 53 | 6.4 | 9.7 | 0.03 | 0.94 | 0.56 | 96 | 1013.7 |
| 20260505174701 | 1 | 43 | 6.4 | 9.7 | 0.03 | 0.94 | 0.56 | 96 | 1013.7 |
| 20260505174607 | 1 | 59 | 6.4 | 9.7 | 0.03 | 0.94 | 0.56 | 96 | 1013.7 |
| 20260505174405 | 1 | 38 | 6.4 | 9.7 | 0.03 | 0.94 | 0.56 | 96 | 1013.7 |
| 20260505174206 | 1 | 40 | 6.4 | 9.7 | 0.03 | 0.94 | 0.56 | 96 | 1013.7 |
| 20260505174201 | 1 | 24 | 6.4 | 9.7 | 0.03 | 0.94 | 0.56 | 96 | 1013.7 |
| 20260505174005 | 1 | 42 | 6.4 | 9.7 | 0.03 | 0.94 | 0.56 | 96 | 1013.7 |
| 20260505173801 | 1 | 49 | 6.4 | 9.7 | 0.03 | 0.94 | 0.56 | 96 | 1013.7 |
| 20260505173701 | 1 | 56 | 6.4 | 9.7 | 0.03 | 0.94 | 0.56 | 96 | 1013.7 |
| 20260505173602 | 1 | 44 | 4.8 | 9.7 | 0.03 | 0.94 | 0.56 | 96 | 1013.7 |
| 20260505173402 | 1 | 70 | 6.4 | 11.3 | 0.03 | 0.94 | 0.56 | 96 | 1013.7 |
| 20260505173201 | 1 | 57 | 4.8 | 11.3 | 0.03 | 0.94 | 0.56 | 96 | 1013.7 |
| 20260505173002 | 1 | 33 | 4.8 | 11.3 | 0.05 | 0.94 | 0.56 | 96 | 1013.7 |
| 20260505172801 | 1 | 48 | 6.4 | 12.9 | 0.05 | 0.94 | 0.56 | 96 | 1013.8 |
| 20260505172701 | 1 | 42 | 6.4 | 12.9 | 0.05 | 0.94 | 0.56 | 96 | 1013.8 |
| 20260505172601 | 1 | 47 | 6.4 | 12.9 | 0.05 | 0.94 | 0.56 | 96 | 1013.8 |
| 20260505172402 | 1 | 59 | 6.4 | 12.9 | 0.05 | 0.94 | 0.56 | 96 | 1013.8 |
| 20260505172211 | 1 | 75 | 8.0 | 16.1 | 0.08 | 0.94 | 0.56 | 96 | 1013.8 |
| 20260505172201 | 1 | 68 | 6.4 | 12.9 | 0.05 | 0.94 | 0.56 | 96 | 1013.8 |
| 20260505172002 | 1 | 86 | 8.0 | 12.9 | 0.08 | 0.94 | 0.56 | 96 | 1013.8 |
| 20260505171817 | 1 | 63 | 8.0 | 14.5 | 0.08 | 0.94 | 0.56 | 96 | 1013.8 |
| 20260505171602 | 1 | 62 | 8.0 | 16.1 | 0.08 | 0.94 | 0.56 | 96 | 1013.8 |
| 20260505171402 | 1 | 41 | 8.0 | 16.1 | 0.08 | 0.94 | 0.56 | 96 | 1013.8 |
| 20260505171212 | 1 | 61 | 6.4 | 14.5 | 0.08 | 0.94 | 0.56 | 96 | 1013.7 |
| 20260505171201 | 1 | 69 | 8.0 | 16.1 | 0.08 | 0.94 | 0.56 | 96 | 1013.8 |
| 20260505171000 | 1 | 63 | 8.0 | 16.1 | 0.08 | 0.94 | 0.56 | 96 | 1013.7 |
| 20260505170818 | 1 | 63 | 8.0 | 16.1 | 0.08 | 0.94 | 0.56 | 96 | 1013.7 |
| 20260505170600 | 1 | 77 | 6.4 | 12.9 | 0.08 | 0.94 | 0.56 | 96 | 1013.8 |
| 20260505170359 | 1 | 33 | 6.4 | 12.9 | 0.08 | 0.94 | 0.56 | 96 | 1013.7 |
| 20260505170205 | 1 | 39 | 6.4 | 12.9 | 0.08 | 0.94 | 0.56 | 96 | 1013.8 |
| 20260505170201 | 1 | 74 | 6.4 | 12.9 | 0.08 | 0.94 | 0.56 | 96 | 1013.8 |
| 20260505170001 | 1 | 55 | 4.8 | 12.9 | 0.08 | 0.94 | 0.56 | 96 | 1014.0 |
| 20260505165801 | 1 | 47 | 4.8 | 12.9 | 0.08 | 0.94 | 0.56 | 96 | 1014.0 |
| 20260505165703 | 1 | 47 | 4.8 | 12.9 | 0.08 | 0.94 | 0.56 | 96 | 1014.0 |
| 20260505165558 | 1 | 52 | 4.8 | 12.9 | 0.08 | 0.94 | 0.56 | 96 | 1014.0 |
| 20260505165359 | 1 | 23 | 4.8 | 9.7 | 0.05 | 0.91 | 0.56 | 96 | 1014.1 |
| 20260505165203 | 1 | 41 | 4.8 | 8.0 | 0.05 | 0.91 | 0.53 | 96 | 1014.1 |
| 20260505165159 | 1 | 41 | 4.8 | 8.0 | 0.05 | 0.91 | 0.53 | 96 | 1014.1 |
| 20260505164957 | 1 | 53 | 4.8 | 8.0 | 0.05 | 0.91 | 0.53 | 96 | 1014.1 |
| 20260505164758 | 1 | 42 | 4.8 | 8.0 | 0.05 | 0.91 | 0.53 | 96 | 1014.2 |
| 20260505164659 | 1 | 5 | 4.8 | 9.7 | 0.05 | 0.91 | 0.53 | 96 | 1014.1 |
| 20260505164559 | 1 | 0 | 4.8 | 9.7 | 0.05 | 0.91 | 0.53 | 96 | 1014.1 |
| 20260505164356 | 1 | 43 | 3.2 | 9.7 | 0.05 | 0.91 | 0.53 | 96 | 1014.2 |
| 20260505164206 | 1 | 40 | 4.8 | 12.9 | 0.08 | 0.91 | 0.53 | 96 | 1014.2 |
| 20260505164155 | 1 | 28 | 3.2 | 9.7 | 0.05 | 0.91 | 0.53 | 96 | 1014.2 |
| 20260505163955 | 1 | 31 | 4.8 | 9.7 | 0.08 | 0.91 | 0.53 | 96 | 1014.2 |
| 20260505163815 | 1 | 61 | 4.8 | 12.9 | 0.08 | 0.91 | 0.53 | 96 | 1014.3 |
| 20260505163557 | 1 | 34 | 4.8 | 12.9 | 0.08 | 0.91 | 0.53 | 96 | 1014.3 |
| 20260505163356 | 1 | 323 | 6.4 | 12.9 | 0.08 | 0.91 | 0.53 | 96 | 1014.3 |
| 20260505163200 | 1 | 344 | 6.4 | 14.5 | 0.08 | 0.91 | 0.53 | 96 | 1014.3 |
| 20260505163155 | 1 | 341 | 6.4 | 14.5 | 0.08 | 0.91 | 0.53 | 96 | 1014.3 |
| 20260505162956 | 1 | 346 | 6.4 | 14.5 | 0.05 | 0.89 | 0.51 | 96 | 1014.3 |
| 20260505162755 | 1 | 332 | 8.0 | 14.5 | 0.05 | 0.89 | 0.51 | 96 | 1014.3 |
| 20260505162658 | 1 | 337 | 8.0 | 14.5 | 0.05 | 0.89 | 0.51 | 96 | 1014.3 |
| 20260505162556 | 1 | 331 | 8.0 | 14.5 | 0.05 | 0.89 | 0.51 | 96 | 1014.3 |
| 20260505162357 | 1 | 309 | 8.0 | 14.5 | 0.05 | 0.89 | 0.51 | 96 | 1014.3 |
| 20260505162159 | 1 | 303 | 8.0 | 12.9 | 0.05 | 0.89 | 0.51 | 96 | 1014.3 |
| 20260505162155 | 1 | 283 | 8.0 | 12.9 | 0.05 | 0.89 | 0.51 | 96 | 1014.3 |
| 20260505161955 | 1 | 311 | 8.0 | 14.5 | 0.03 | 0.86 | 0.48 | 96 | 1014.3 |
| 20260505161755 | 1 | 292 | 8.0 | 14.5 | 0.03 | 0.86 | 0.48 | 96 | 1014.2 |
| 20260505161657 | 1 | 304 | 8.0 | 14.5 | 0.03 | 0.86 | 0.48 | 96 | 1014.3 |
| 20260505161557 | 1 | 288 | 8.0 | 14.5 | 0.03 | 0.86 | 0.48 | 96 | 1014.3 |
| 20260505161356 | 1 | 311 | 9.7 | 14.5 | 0.03 | 0.86 | 0.48 | 96 | 1014.3 |
| 20260505161155 | 1 | 310 | 8.0 | 14.5 | 0.05 | 0.86 | 0.48 | 96 | 1014.3 |
| 20260505160956 | 1 | 287 | 8.0 | 14.5 | 0.05 | 0.86 | 0.48 | 96 | 1014.3 |
| 20260505160755 | 1 | 311 | 9.7 | 14.5 | 0.05 | 0.86 | 0.48 | 96 | 1014.4 |
| 20260505160657 | 1 | 312 | 9.7 | 16.1 | 0.05 | 0.86 | 0.48 | 96 | 1014.4 |
| 20260505160555 | 1 | 277 | 9.7 | 16.1 | 0.05 | 0.86 | 0.48 | 96 | 1014.4 |
| 20260505160355 | 1 | 291 | 9.7 | 16.1 | 0.05 | 0.86 | 0.48 | 96 | 1014.4 |
| 20260505160207 | 1 | 314 | 8.0 | 14.5 | 0.05 | 0.86 | 0.48 | 96 | 1014.3 |
| 20260505160156 | 1 | 313 | 8.0 | 16.1 | 0.05 | 0.86 | 0.48 | 96 | 1014.3 |
| 20260505153352 | 0 | 330 | 9.7 | 17.7 | 0.05 | 0.84 | 0.46 | 96 | 1014.4 |
| 20260505153156 | 0 | 322 | 11.3 | 17.7 | 0.05 | 0.84 | 0.46 | 96 | 1014.4 |
| 20260505153152 | 0 | 333 | 11.3 | 17.7 | 0.05 | 0.84 | 0.46 | 96 | 1014.4 |
| 20260505152952 | 1 | 316 | 11.3 | 17.7 | 0.05 | 0.84 | 0.46 | 96 | 1014.4 |
| 20260505152752 | 0 | 351 | 11.3 | 17.7 | 0.05 | 0.84 | 0.46 | 96 | 1014.4 |
| 20260505152654 | 0 | 339 | 11.3 | 17.7 | 0.05 | 0.84 | 0.46 | 96 | 1014.4 |
| 20260505152551 | 0 | 333 | 12.9 | 17.7 | 0.05 | 0.84 | 0.46 | 96 | 1014.4 |
| 20260505152351 | 0 | 339 | 12.9 | 17.7 | 0.05 | 0.84 | 0.46 | 96 | 1014.4 |
| 20260505152200 | 0 | 325 | 12.9 | 17.7 | 0.05 | 0.84 | 0.46 | 96 | 1014.6 |
| 20260505152154 | 0 | 321 | 12.9 | 17.7 | 0.05 | 0.84 | 0.46 | 96 | 1014.6 |
| 20260505152150 | 0 | 309 | 12.9 | 17.7 | 0.05 | 0.84 | 0.46 | 96 | 1014.6 |
| 20260505151951 | 0 | 286 | 12.9 | 17.7 | 0.05 | 0.84 | 0.46 | 96 | 1014.6 |
| 20260505151810 | 0 | 311 | 11.3 | 17.7 | 0.05 | 0.84 | 0.46 | 96 | 1014.6 |
| 20260505151550 | 0 | 329 | 11.3 | 17.7 | 0.05 | 0.84 | 0.46 | 96 | 1014.6 |
| 20260505151348 | 0 | 312 | 11.3 | 17.7 | 0.05 | 0.84 | 0.46 | 96 | 1014.6 |
| 20260505151155 | 0 | 328 | 11.3 | 16.1 | 0.03 | 0.81 | 0.46 | 96 | 1014.4 |
| 20260505151149 | 0 | 331 | 11.3 | 16.1 | 0.03 | 0.81 | 0.46 | 96 | 1014.4 |
| 20260505150949 | 0 | 332 | 11.3 | 16.1 | 0.03 | 0.81 | 0.43 | 96 | 1014.4 |
| 20260505150748 | 0 | 339 | 11.3 | 16.1 | 0.03 | 0.81 | 0.43 | 96 | 1014.4 |
| 20260505150653 | 0 | 337 | 11.3 | 16.1 | 0.03 | 0.81 | 0.43 | 96 | 1014.4 |
| 20260505150549 | 0 | 331 | 11.3 | 16.1 | 0.03 | 0.81 | 0.43 | 96 | 1014.4 |
| 20260505150348 | 0 | 336 | 11.3 | 19.3 | 0.03 | 0.81 | 0.43 | 96 | 1014.4 |
| 20260505150154 | 0 | 331 | 12.9 | 19.3 | 0.05 | 0.81 | 0.43 | 96 | 1014.4 |
| 20260505150146 | 0 | 321 | 12.9 | 19.3 | 0.05 | 0.81 | 0.43 | 96 | 1014.4 |
| 20260505140649 | 0 | 338 | 14.5 | 20.9 | 0.03 | 0.79 | 0.41 | 96 | 1014.8 |
| 20260505140531 | 0 | 340 | 12.9 | 22.5 | 0.03 | 0.79 | 0.41 | 96 | 1014.7 |
| 20260505140331 | 0 | 331 | 12.9 | 22.5 | 0.03 | 0.79 | 0.41 | 96 | 1014.8 |
| 20260505140148 | 0 | 324 | 12.9 | 22.5 | 0.00 | 0.76 | 0.38 | 96 | 1014.8 |
| 20260505140131 | 0 | 326 | 12.9 | 22.5 | 0.00 | 0.76 | 0.38 | 96 | 1014.8 |
| 20260505130145 | 1 | 311 | 19.3 | 30.6 | 0.05 | 0.76 | 0.38 | 96 | 1013.6 |
| 20260505130124 | 1 | 334 | 19.3 | 30.6 | 0.05 | 0.76 | 0.38 | 96 | 1013.6 |
| 20260505124925 | 1 | 320 | 20.9 | 35.4 | 0.08 | 0.76 | 0.38 | 96 | 1013.5 |
| 20260505124810 | 1 | 346 | 19.3 | 30.6 | 0.08 | 0.74 | 0.36 | 96 | 1013.1 |
| 20260505124757 | 1 | 303 | 20.9 | 35.4 | 0.08 | 0.76 | 0.38 | 96 | 1013.2 |
| 20260505124524 | 1 | 301 | 20.9 | 29.0 | 0.08 | 0.76 | 0.38 | 96 | 1013.1 |
| 20260505124322 | 1 | 321 | 20.9 | 30.6 | 0.10 | 0.76 | 0.38 | 96 | 1013.1 |
| 20260505124123 | 1 | 308 | 19.3 | 30.6 | 0.08 | 0.74 | 0.36 | 96 | 1013.1 |
| 20260505123923 | 1 | 307 | 20.9 | 30.6 | 0.08 | 0.74 | 0.36 | 95 | 1013.1 |
| 20260505123723 | 1 | 342 | 20.9 | 32.2 | 0.10 | 0.74 | 0.36 | 95 | 1013.0 |
| 20260505123645 | 1 | 333 | 20.9 | 32.2 | 0.10 | 0.74 | 0.36 | 95 | 1013.1 |
| 20260505123524 | 1 | 327 | 20.9 | 32.2 | 0.10 | 0.74 | 0.36 | 95 | 1013.1 |
| 20260505123324 | 1 | 312 | 20.9 | 32.2 | 0.10 | 0.74 | 0.36 | 95 | 1013.1 |
| 20260505123144 | 1 | 318 | 20.9 | 32.2 | 0.10 | 0.74 | 0.36 | 95 | 1013.0 |
| 20260505123124 | 1 | 338 | 20.9 | 32.2 | 0.10 | 0.74 | 0.36 | 95 | 1013.0 |
| 20260505122923 | 1 | 325 | 19.3 | 32.2 | 0.13 | 0.74 | 0.36 | 95 | 1012.9 |
| 20260505122723 | 1 | 344 | 19.3 | 29.0 | 0.15 | 0.74 | 0.36 | 95 | 1012.9 |
| 20260505122644 | 1 | 320 | 19.3 | 29.0 | 0.18 | 0.74 | 0.36 | 95 | 1013.0 |
| 20260505122523 | 1 | 344 | 19.3 | 29.0 | 0.18 | 0.74 | 0.36 | 95 | 1012.9 |
| 20260505122322 | 1 | 342 | 20.9 | 30.6 | 0.20 | 0.74 | 0.36 | 95 | 1013.0 |
| 20260505122145 | 1 | 5 | 20.9 | 30.6 | 0.20 | 0.74 | 0.36 | 95 | 1012.9 |
| 20260505122124 | 1 | 342 | 20.9 | 30.6 | 0.20 | 0.74 | 0.36 | 95 | 1012.9 |
| 20260505121923 | 1 | 319 | 20.9 | 32.2 | 0.20 | 0.71 | 0.33 | 95 | 1012.9 |
| 20260505121723 | 1 | 336 | 20.9 | 32.2 | 0.23 | 0.71 | 0.33 | 95 | 1012.9 |
| 20260505121644 | 1 | 331 | 20.9 | 32.2 | 0.23 | 0.71 | 0.33 | 95 | 1013.0 |
| 20260505121524 | 1 | 321 | 20.9 | 32.2 | 0.23 | 0.71 | 0.33 | 95 | 1013.0 |
| 20260505121323 | 1 | 342 | 19.3 | 32.2 | 0.23 | 0.71 | 0.33 | 95 | 1013.0 |
| 20260505121145 | 1 | 322 | 19.3 | 32.2 | 0.23 | 0.71 | 0.33 | 95 | 1013.0 |
| 20260505121124 | 1 | 346 | 19.3 | 32.2 | 0.25 | 0.71 | 0.33 | 95 | 1013.0 |
| 20260505120924 | 1 | 320 | 19.3 | 30.6 | 0.25 | 0.71 | 0.33 | 95 | 1013.0 |
| 20260505120724 | 1 | 300 | 20.9 | 30.6 | 0.25 | 0.71 | 0.33 | 95 | 1013.1 |
| 20260505120646 | 1 | 315 | 20.9 | 30.6 | 0.25 | 0.71 | 0.33 | 95 | 1013.0 |
| 20260505120524 | 1 | 339 | 20.9 | 30.6 | 0.25 | 0.71 | 0.33 | 95 | 1013.0 |
| 20260505120323 | 2 | 335 | 20.9 | 30.6 | 0.25 | 0.71 | 0.33 | 95 | 1013.0 |
| 20260505120146 | 2 | 346 | 20.9 | 30.6 | 0.25 | 0.71 | 0.33 | 95 | 1013.0 |
| 20260505120123 | 2 | 34 | 20.9 | 30.6 | 0.25 | 0.71 | 0.33 | 95 | 1013.0 |
| 20260505115926 | 2 | 329 | 20.9 | 30.6 | 0.23 | 0.69 | 0.33 | 95 | 1013.0 |
| 20260505115725 | 2 | 332 | 20.9 | 30.6 | 0.23 | 0.69 | 0.30 | 95 | 1013.0 |
| 20260505115646 | 2 | 319 | 20.9 | 30.6 | 0.23 | 0.69 | 0.30 | 95 | 1013.0 |
| 20260505115524 | 2 | 314 | 20.9 | 30.6 | 0.23 | 0.69 | 0.30 | 95 | 1013.0 |
| 20260505115322 | 2 | 337 | 20.9 | 30.6 | 0.23 | 0.69 | 0.30 | 95 | 1013.0 |
| 20260505115146 | 2 | 323 | 20.9 | 30.6 | 0.23 | 0.69 | 0.30 | 95 | 1012.9 |
| 20260505115122 | 2 | 312 | 20.9 | 30.6 | 0.23 | 0.69 | 0.30 | 95 | 1012.9 |
| 20260505114923 | 2 | 318 | 20.9 | 29.0 | 0.23 | 0.69 | 0.30 | 95 | 1012.9 |
| 20260505114724 | 2 | 338 | 20.9 | 29.0 | 0.23 | 0.69 | 0.30 | 95 | 1012.9 |
| 20260505114645 | 2 | 327 | 19.3 | 29.0 | 0.23 | 0.69 | 0.30 | 95 | 1012.9 |
| 20260505114522 | 2 | 315 | 20.9 | 29.0 | 0.23 | 0.69 | 0.30 | 95 | 1012.9 |
| 20260505114324 | 2 | 313 | 19.3 | 29.0 | 0.20 | 0.66 | 0.28 | 95 | 1012.9 |
| 20260505114146 | 2 | 314 | 20.9 | 30.6 | 0.20 | 0.66 | 0.28 | 95 | 1012.9 |
| 20260505114122 | 2 | 332 | 20.9 | 32.2 | 0.20 | 0.66 | 0.28 | 95 | 1012.9 |
| 20260505113923 | 2 | 311 | 20.9 | 32.2 | 0.20 | 0.66 | 0.28 | 95 | 1012.8 |
| 20260505113724 | 2 | 313 | 20.9 | 32.2 | 0.18 | 0.64 | 0.28 | 95 | 1012.9 |
| 20260505113646 | 2 | 325 | 20.9 | 32.2 | 0.18 | 0.64 | 0.25 | 95 | 1012.8 |
| 20260505113523 | 2 | 295 | 20.9 | 32.2 | 0.18 | 0.64 | 0.25 | 95 | 1012.8 |
| 20260505113324 | 2 | 273 | 20.9 | 32.2 | 0.18 | 0.64 | 0.25 | 95 | 1012.9 |
| 20260505113147 | 2 | 292 | 20.9 | 32.2 | 0.18 | 0.64 | 0.25 | 95 | 1012.6 |
| 20260505113123 | 3 | 313 | 20.9 | 32.2 | 0.18 | 0.64 | 0.25 | 95 | 1012.6 |
| 20260505112924 | 3 | 333 | 20.9 | 32.2 | 0.15 | 0.61 | 0.23 | 95 | 1012.6 |
| 20260505112723 | 3 | 322 | 20.9 | 32.2 | 0.13 | 0.58 | 0.20 | 95 | 1012.6 |
| 20260505112644 | 3 | 300 | 20.9 | 32.2 | 0.10 | 0.56 | 0.20 | 95 | 1012.6 |
| 20260505112524 | 3 | 338 | 20.9 | 32.2 | 0.10 | 0.56 | 0.18 | 95 | 1012.6 |
| 20260505112324 | 3 | 314 | 20.9 | 32.2 | 0.08 | 0.53 | 0.15 | 95 | 1012.6 |
| 20260505112146 | 3 | 311 | 19.3 | 32.2 | 0.08 | 0.53 | 0.15 | 95 | 1012.5 |
| 20260505112122 | 3 | 324 | 19.3 | 32.2 | 0.08 | 0.53 | 0.15 | 95 | 1012.5 |
| 20260505111924 | 3 | 322 | 17.7 | 32.2 | 0.05 | 0.51 | 0.13 | 95 | 1012.5 |
| 20260505111722 | 3 | 323 | 17.7 | 32.2 | 0.03 | 0.48 | 0.13 | 95 | 1012.5 |
| 20260505111644 | 3 | 322 | 16.1 | 32.2 | 0.03 | 0.48 | 0.10 | 95 | 1012.5 |
| 20260505111525 | 3 | 327 | 16.1 | 29.0 | 0.03 | 0.48 | 0.10 | 95 | 1012.5 |
| 20260505111323 | 3 | 343 | 16.1 | 27.4 | 0.03 | 0.48 | 0.10 | 95 | 1012.5 |
| 20260505111145 | 3 | 323 | 16.1 | 27.4 | 0.03 | 0.48 | 0.10 | 95 | 1012.5 |
| 20260505111124 | 3 | 313 | 16.1 | 27.4 | 0.00 | 0.46 | 0.08 | 95 | 1012.5 |
| 20260505110924 | 3 | 328 | 16.1 | 27.4 | 0.00 | 0.46 | 0.08 | 95 | 1012.6 |
| 20260505110723 | 3 | 321 | 16.1 | 27.4 | 0.00 | 0.46 | 0.08 | 95 | 1012.5 |
| 20260505110644 | 3 | 334 | 17.7 | 27.4 | 0.00 | 0.46 | 0.08 | 95 | 1012.4 |
| 20260505110524 | 3 | 325 | 17.7 | 27.4 | 0.00 | 0.46 | 0.08 | 95 | 1012.4 |
| 20260505110323 | 3 | 300 | 17.7 | 27.4 | 0.00 | 0.46 | 0.08 | 95 | 1012.4 |
| 20260505110145 | 3 | 317 | 17.7 | 29.0 | 0.00 | 0.46 | 0.08 | 95 | 1012.4 |
| 20260505110125 | 3 | 332 | 17.7 | 29.0 | 0.00 | 0.46 | 0.08 | 95 | 1012.4 |
| 20260505102144 | 6 | 302 | 11.3 | 27.4 | 0.00 | 0.46 | 0.08 | 94 | 1011.7 |
| 20260505102121 | 6 | 311 | 11.3 | 27.4 | 0.00 | 0.46 | 0.08 | 94 | 1011.7 |
| 20260505101922 | 6 | 336 | 8.0 | 27.4 | 0.00 | 0.46 | 0.08 | 94 | 1011.5 |
| 20260505101722 | 6 | 306 | 6.4 | 16.1 | 0.00 | 0.46 | 0.08 | 94 | 1011.4 |
| 20260505101645 | 6 | 306 | 4.8 | 12.9 | 0.00 | 0.46 | 0.08 | 94 | 1011.3 |
| 20260505101522 | 6 | 321 | 4.8 | 8.0 | 0.00 | 0.46 | 0.08 | 94 | 1011.2 |
| 20260505101321 | 6 | 320 | 4.8 | 8.0 | 0.00 | 0.46 | 0.08 | 94 | 1011.3 |
| 20260505101121 | 6 | 327 | 4.8 | 8.0 | 0.00 | 0.46 | 0.08 | 94 | 1011.3 |
| 20260505100922 | 6 | 319 | 4.8 | 8.0 | 0.00 | 0.46 | 0.08 | 94 | 1011.4 |
| 20260505100722 | 6 | 344 | 4.8 | 8.0 | 0.00 | 0.46 | 0.08 | 94 | 1011.3 |
| 20260505100642 | 6 | 335 | 4.8 | 8.0 | 0.00 | 0.46 | 0.08 | 94 | 1011.3 |
| 20260505100522 | 6 | 348 | 4.8 | 9.7 | 0.00 | 0.46 | 0.08 | 94 | 1011.2 |
| 20260505100321 | 6 | 322 | 6.4 | 12.9 | 0.00 | 0.46 | 0.08 | 94 | 1011.3 |
| 20260505100142 | 6 | 339 | 6.4 | 12.9 | 0.00 | 0.46 | 0.08 | 93 | 1011.3 |
| 20260505100122 | 6 | 333 | 6.4 | 12.9 | 0.00 | 0.46 | 0.08 | 93 | 1011.3 |
| 20260505095921 | 6 | 341 | 6.4 | 12.9 | 0.00 | 0.46 | 0.08 | 93 | 1011.3 |
| 20260505095728 | 6 | 296 | 8.0 | 12.9 | 0.00 | 0.46 | 0.08 | 93 | 1011.4 |
| 20260505095720 | 6 | 278 | 6.4 | 12.9 | 0.00 | 0.46 | 0.08 | 93 | 1011.4 |
| 20260505095642 | 6 | 296 | 8.0 | 12.9 | 0.00 | 0.46 | 0.08 | 93 | 1011.4 |
| 20260505095321 | 6 | 323 | 8.0 | 16.1 | 0.00 | 0.46 | 0.08 | 93 | 1011.3 |
| 20260505095144 | 6 | 313 | 8.0 | 16.1 | 0.00 | 0.46 | 0.08 | 93 | 1011.4 |
| 20260505095121 | 6 | 331 | 8.0 | 16.1 | 0.00 | 0.46 | 0.08 | 93 | 1011.4 |
| 20260505094922 | 6 | 313 | 9.7 | 19.3 | 0.00 | 0.46 | 0.08 | 92 | 1011.4 |
| 20260505094722 | 6 | 324 | 11.3 | 19.3 | 0.00 | 0.46 | 0.08 | 92 | 1011.4 |
| 20260505094643 | 6 | 321 | 11.3 | 19.3 | 0.00 | 0.46 | 0.08 | 92 | 1011.4 |
| 20260505094522 | 6 | 302 | 11.3 | 19.3 | 0.00 | 0.46 | 0.08 | 92 | 1011.4 |
| 20260505094322 | 6 | 279 | 11.3 | 19.3 | 0.00 | 0.46 | 0.08 | 91 | 1011.4 |
| 20260505094148 | 6 | 0 | 9.7 | 16.1 | 0.00 | 0.46 | 0.08 | 90 | 1011.1 |
| 20260505094143 | 6 | 284 | 11.3 | 19.3 | 0.00 | 0.46 | 0.08 | 91 | 1011.3 |
| 20260505094120 | 6 | 288 | 11.3 | 19.3 | 0.00 | 0.46 | 0.08 | 91 | 1011.3 |
| 20260505093921 | 6 | 305 | 9.7 | 17.7 | 0.00 | 0.46 | 0.08 | 90 | 1011.3 |
| 20260505093755 | 6 | 306 | 9.7 | 16.1 | 0.00 | 0.46 | 0.08 | 90 | 1011.2 |
| 20260505093521 | 6 | 10 | 8.0 | 16.1 | 0.00 | 0.46 | 0.08 | 90 | 1010.9 |
| 20260505093318 | 6 | 38 | 8.0 | 16.1 | 0.00 | 0.46 | 0.08 | 90 | 1010.9 |
| 20260505093143 | 6 | 51 | 8.0 | 16.1 | 0.00 | 0.46 | 0.08 | 90 | 1010.9 |
| 20260505093118 | 6 | 59 | 8.0 | 16.1 | 0.00 | 0.46 | 0.08 | 90 | 1010.9 |
| 20260505092918 | 6 | 63 | 9.7 | 16.1 | 0.00 | 0.46 | 0.08 | 90 | 1010.9 |
| 20260505092718 | 6 | 43 | 8.0 | 16.1 | 0.00 | 0.46 | 0.08 | 90 | 1010.9 |
| 20260505092648 | 6 | 59 | 6.4 | 12.9 | 0.00 | 0.46 | 0.08 | 89 | 1011.1 |
| 20260505092644 | 6 | 26 | 8.0 | 16.1 | 0.00 | 0.46 | 0.08 | 90 | 1010.9 |
| 20260505092516 | 6 | 65 | 8.0 | 16.1 | 0.00 | 0.46 | 0.08 | 90 | 1010.8 |
| 20260505092313 | 6 | 55 | 8.0 | 12.9 | 0.00 | 0.46 | 0.08 | 89 | 1010.9 |
| 20260505092112 | 6 | 76 | 6.4 | 12.9 | 0.00 | 0.46 | 0.08 | 89 | 1011.1 |
| 20260505091912 | 6 | 74 | 4.8 | 12.9 | 0.00 | 0.46 | 0.08 | 89 | 1011.2 |
| 20260505091710 | 6 | 74 | 3.2 | 11.3 | 0.00 | 0.46 | 0.08 | 89 | 1011.2 |
| 20260505091643 | 6 | 84 | 3.2 | 11.3 | 0.00 | 0.46 | 0.08 | 89 | 1011.3 |
| 20260505091510 | 6 | 59 | 3.2 | 8.0 | 0.00 | 0.46 | 0.08 | 89 | 1011.2 |
| 20260505091312 | 6 | 29 | 3.2 | 8.0 | 0.00 | 0.46 | 0.08 | 89 | 1011.3 |
| 20260505091142 | 6 | 32 | 4.8 | 8.0 | 0.00 | 0.46 | 0.08 | 89 | 1011.3 |
| 20260505091111 | 6 | 39 | 4.8 | 8.0 | 0.00 | 0.46 | 0.08 | 88 | 1011.3 |
| 20260505090911 | 6 | 5 | 6.4 | 11.3 | 0.00 | 0.46 | 0.08 | 88 | 1011.2 |
| 20260505090711 | 6 | 11 | 4.8 | 11.3 | 0.00 | 0.46 | 0.08 | 87 | 1011.3 |
| 20260505090642 | 6 | 38 | 4.8 | 11.3 | 0.00 | 0.46 | 0.08 | 87 | 1011.3 |
| 20260505090511 | 6 | 69 | 4.8 | 11.3 | 0.00 | 0.46 | 0.08 | 87 | 1011.3 |
| 20260505090310 | 6 | 74 | 4.8 | 11.3 | 0.00 | 0.46 | 0.08 | 86 | 1011.3 |
| 20260505090148 | 6 | 65 | 1.6 | 8.0 | 0.00 | 0.46 | 0.08 | 85 | 1011.2 |
| 20260505090143 | 6 | 78 | 3.2 | 11.3 | 0.00 | 0.46 | 0.08 | 86 | 1011.2 |
| 20260505090110 | 6 | 75 | 3.2 | 11.3 | 0.00 | 0.46 | 0.08 | 86 | 1011.2 |
| 20260505085910 | 6 | 80 | 3.2 | 8.0 | 0.00 | 0.46 | 0.08 | 86 | 1011.2 |
| 20260505085754 | 6 | 67 | 3.2 | 8.0 | 0.00 | 0.46 | 0.08 | 85 | 1011.2 |
| 20260505085511 | 6 | 28 | 1.6 | 4.8 | 0.00 | 0.46 | 0.08 | 85 | 1011.2 |
| 20260505085308 | 6 | 347 | 1.6 | 4.8 | 0.00 | 0.46 | 0.08 | 86 | 1011.2 |
| 20260505085143 | 6 | 54 | 3.2 | 6.4 | 0.00 | 0.46 | 0.08 | 86 | 1011.2 |
| 20260505085108 | 6 | 79 | 3.2 | 9.7 | 0.00 | 0.46 | 0.08 | 86 | 1011.2 |
| 20260505084909 | 6 | 88 | 3.2 | 9.7 | 0.00 | 0.46 | 0.08 | 86 | 1011.1 |
| 20260505084708 | 6 | 98 | 3.2 | 9.7 | 0.00 | 0.46 | 0.08 | 86 | 1011.1 |
| 20260505084642 | 6 | 98 | 4.8 | 9.7 | 0.00 | 0.46 | 0.08 | 86 | 1011.1 |
| 20260505084508 | 6 | 105 | 4.8 | 11.3 | 0.00 | 0.46 | 0.08 | 86 | 1011.2 |
| 20260505084306 | 6 | 105 | 4.8 | 11.3 | 0.00 | 0.46 | 0.08 | 86 | 1011.1 |
| 20260505084142 | 6 | 101 | 6.4 | 12.9 | 0.00 | 0.46 | 0.08 | 86 | 1010.9 |
| 20260505084105 | 6 | 93 | 6.4 | 14.5 | 0.00 | 0.46 | 0.08 | 87 | 1011.1 |
| 20260505083902 | 6 | 103 | 6.4 | 14.5 | 0.00 | 0.46 | 0.08 | 87 | 1011.1 |
| 20260505083702 | 6 | 85 | 8.0 | 14.5 | 0.00 | 0.46 | 0.08 | 87 | 1011.1 |
| 20260505083641 | 6 | 94 | 8.0 | 14.5 | 0.00 | 0.46 | 0.08 | 87 | 1010.9 |
| 20260505083503 | 6 | 92 | 9.7 | 14.5 | 0.00 | 0.46 | 0.08 | 87 | 1010.9 |
| 20260505083303 | 6 | 129 | 9.7 | 14.5 | 0.00 | 0.46 | 0.08 | 87 | 1010.9 |
| 20260505083141 | 6 | 110 | 8.0 | 14.5 | 0.00 | 0.46 | 0.08 | 87 | 1010.9 |
| 20260505083102 | 6 | 113 | 8.0 | 14.5 | 0.00 | 0.46 | 0.08 | 87 | 1010.9 |
| 20260505082900 | 6 | 117 | 8.0 | 14.5 | 0.00 | 0.46 | 0.08 | 88 | 1010.9 |
| 20260505082657 | 6 | 104 | 6.4 | 14.5 | 0.03 | 0.46 | 0.08 | 88 | 1010.9 |
| 20260505082648 | 6 | 108 | 4.8 | 11.3 | 0.03 | 0.46 | 0.08 | 88 | 1011.3 |
| 20260505082640 | 6 | 106 | 6.4 | 14.5 | 0.03 | 0.46 | 0.08 | 88 | 1010.9 |
| 20260505082457 | 6 | 99 | 6.4 | 12.9 | 0.03 | 0.46 | 0.08 | 88 | 1011.2 |
| 20260505082304 | 6 | 102 | 4.8 | 11.3 | 0.03 | 0.46 | 0.08 | 88 | 1011.3 |
| 20260505082058 | 6 | 111 | 4.8 | 11.3 | 0.03 | 0.46 | 0.08 | 87 | 1011.3 |
| 20260505081857 | 6 | 80 | 4.8 | 11.3 | 0.03 | 0.46 | 0.08 | 88 | 1011.3 |
| 20260505081657 | 6 | 85 | 3.2 | 9.7 | 0.03 | 0.46 | 0.08 | 88 | 1011.4 |
| 20260505081640 | 6 | 92 | 3.2 | 6.4 | 0.03 | 0.46 | 0.08 | 88 | 1011.4 |
| 20260505081457 | 6 | 84 | 3.2 | 6.4 | 0.03 | 0.46 | 0.08 | 88 | 1011.5 |
| 20260505081254 | 6 | 74 | 3.2 | 11.3 | 0.03 | 0.46 | 0.08 | 88 | 1011.5 |
| 20260505081140 | 6 | 74 | 3.2 | 11.3 | 0.03 | 0.46 | 0.08 | 88 | 1011.5 |
| 20260505081055 | 6 | 74 | 4.8 | 11.3 | 0.03 | 0.46 | 0.08 | 88 | 1011.7 |
| 20260505080852 | 6 | 94 | 4.8 | 11.3 | 0.03 | 0.46 | 0.08 | 89 | 1011.7 |
| 20260505080638 | 6 | 105 | 4.8 | 11.3 | 0.03 | 0.46 | 0.08 | 89 | 1011.7 |
| 20260505080454 | 6 | 113 | 4.8 | 11.3 | 0.03 | 0.46 | 0.08 | 90 | 1011.5 |
| 20260505080252 | 6 | 105 | 3.2 | 9.7 | 0.03 | 0.46 | 0.08 | 91 | 1011.5 |
| 20260505080138 | 6 | 135 | 3.2 | 9.7 | 0.03 | 0.46 | 0.08 | 91 | 1011.7 |
| 20260505080052 | 6 | 144 | 3.2 | 9.7 | 0.03 | 0.46 | 0.08 | 91 | 1011.7 |
| 20260505075852 | 6 | 98 | 3.2 | 6.4 | 0.03 | 0.46 | 0.08 | 91 | 1011.7 |
| 20260505075639 | 6 | 94 | 3.2 | 6.4 | 0.03 | 0.46 | 0.08 | 91 | 1011.7 |
| 20260505075451 | 6 | 101 | 3.2 | 6.4 | 0.03 | 0.46 | 0.08 | 91 | 1011.7 |
| 20260505075246 | 6 | 74 | 3.2 | 6.4 | 0.03 | 0.46 | 0.08 | 91 | 1011.8 |
| 20260505075140 | 6 | 80 | 3.2 | 6.4 | 0.03 | 0.46 | 0.08 | 92 | 1011.8 |
| 20260505075048 | 6 | 90 | 3.2 | 6.4 | 0.03 | 0.46 | 0.08 | 92 | 1011.8 |
| 20260505074848 | 6 | 128 | 3.2 | 6.4 | 0.03 | 0.46 | 0.08 | 92 | 1011.8 |
| 20260505074644 | 6 | 146 | 3.2 | 11.3 | 0.05 | 0.46 | 0.08 | 92 | 1011.9 |
| 20260505074640 | 6 | 80 | 3.2 | 6.4 | 0.03 | 0.46 | 0.08 | 92 | 1011.8 |
| 20260505074446 | 6 | 94 | 3.2 | 6.4 | 0.03 | 0.46 | 0.08 | 92 | 1011.8 |
| 20260505074255 | 6 | 88 | 3.2 | 11.3 | 0.05 | 0.46 | 0.08 | 92 | 1011.9 |
| 20260505074046 | 6 | 115 | 4.8 | 11.3 | 0.05 | 0.46 | 0.08 | 92 | 1011.9 |
| 20260505073844 | 6 | 93 | 4.8 | 11.3 | 0.05 | 0.46 | 0.08 | 92 | 1011.9 |
| 20260505073641 | 6 | 105 | 6.4 | 12.9 | 0.05 | 0.46 | 0.08 | 92 | 1011.9 |
| 20260505073636 | 6 | 98 | 6.4 | 12.9 | 0.05 | 0.46 | 0.08 | 92 | 1011.9 |
| 20260505073443 | 6 | 119 | 6.4 | 12.9 | 0.08 | 0.46 | 0.08 | 92 | 1012.0 |
| 20260505073242 | 6 | 104 | 6.4 | 12.9 | 0.08 | 0.46 | 0.08 | 92 | 1012.0 |
| 20260505073137 | 6 | 119 | 6.4 | 12.9 | 0.08 | 0.46 | 0.08 | 92 | 1012.2 |
| 20260505073039 | 6 | 120 | 6.4 | 12.9 | 0.08 | 0.46 | 0.08 | 92 | 1012.2 |
| 20260505072839 | 6 | 101 | 6.4 | 12.9 | 0.08 | 0.46 | 0.08 | 92 | 1012.2 |
| 20260505072637 | 6 | 122 | 6.4 | 12.9 | 0.05 | 0.43 | 0.05 | 93 | 1012.3 |
| 20260505072437 | 6 | 138 | 6.4 | 12.9 | 0.05 | 0.43 | 0.05 | 93 | 1012.2 |
| 20260505072238 | 6 | 141 | 4.8 | 11.3 | 0.05 | 0.43 | 0.05 | 92 | 1012.2 |
| 20260505072141 | 6 | 111 | 4.8 | 9.7 | 0.05 | 0.43 | 0.05 | 92 | 1012.3 |
| 20260505072136 | 6 | 128 | 4.8 | 9.7 | 0.05 | 0.43 | 0.05 | 92 | 1012.2 |
| 20260505072037 | 6 | 121 | 4.8 | 9.7 | 0.05 | 0.43 | 0.05 | 92 | 1012.2 |
| 20260505071838 | 6 | 112 | 4.8 | 9.7 | 0.05 | 0.43 | 0.05 | 93 | 1012.2 |
| 20260505071740 | 6 | 109 | 4.8 | 9.7 | 0.05 | 0.43 | 0.05 | 93 | 1012.4 |
| 20260505071434 | 6 | 116 | 4.8 | 9.7 | 0.05 | 0.43 | 0.05 | 92 | 1012.4 |
| 20260505071250 | 6 | 116 | 4.8 | 9.7 | 0.05 | 0.43 | 0.05 | 92 | 1012.3 |
| 20260505071036 | 6 | 143 | 4.8 | 9.7 | 0.05 | 0.43 | 0.05 | 93 | 1012.3 |
| 20260505070835 | 6 | 124 | 4.8 | 9.7 | 0.05 | 0.43 | 0.05 | 93 | 1012.3 |
| 20260505070636 | 6 | 169 | 4.8 | 9.7 | 0.05 | 0.43 | 0.05 | 93 | 1012.5 |
| 20260505070436 | 6 | 158 | 4.8 | 9.7 | 0.05 | 0.43 | 0.05 | 93 | 1012.5 |
| 20260505070234 | 6 | 169 | 4.8 | 9.7 | 0.05 | 0.43 | 0.05 | 93 | 1012.5 |
| 20260505070134 | 6 | 173 | 4.8 | 9.7 | 0.05 | 0.43 | 0.05 | 93 | 1012.5 |
| 20260505070034 | 6 | 135 | 4.8 | 9.7 | 0.05 | 0.43 | 0.05 | 93 | 1012.5 |
| 20260505065833 | 6 | 127 | 4.8 | 9.7 | 0.05 | 0.43 | 0.05 | 93 | 1012.6 |
| 20260505065637 | 6 | 117 | 3.2 | 9.7 | 0.05 | 0.43 | 0.05 | 92 | 1012.6 |
| 20260505065633 | 6 | 130 | 3.2 | 9.7 | 0.05 | 0.43 | 0.05 | 92 | 1012.6 |
| 20260505065435 | 6 | 97 | 3.2 | 9.7 | 0.05 | 0.43 | 0.05 | 92 | 1012.6 |
| 20260505065233 | 6 | 103 | 3.2 | 9.7 | 0.05 | 0.43 | 0.05 | 92 | 1012.6 |
| 20260505065133 | 6 | 117 | 3.2 | 9.7 | 0.05 | 0.43 | 0.05 | 92 | 1012.6 |
| 20260505065030 | 6 | 116 | 3.2 | 6.4 | 0.05 | 0.43 | 0.05 | 92 | 1012.6 |
| 20260505064832 | 6 | 118 | 3.2 | 6.4 | 0.05 | 0.43 | 0.05 | 92 | 1012.8 |
| 20260505064631 | 6 | 182 | 3.2 | 6.4 | 0.05 | 0.43 | 0.05 | 92 | 1012.9 |
| 20260505064429 | 6 | 185 | 4.8 | 8.0 | 0.05 | 0.43 | 0.05 | 92 | 1013.0 |
| 20260505064227 | 6 | 188 | 3.2 | 8.0 | 0.03 | 0.41 | 0.03 | 92 | 1013.0 |
| 20260505064134 | 6 | 194 | 3.2 | 8.0 | 0.03 | 0.41 | 0.03 | 92 | 1012.9 |
| 20260505064028 | 6 | 198 | 3.2 | 8.0 | 0.03 | 0.41 | 0.03 | 92 | 1012.9 |
| 20260505063825 | 6 | 202 | 1.6 | 8.0 | 0.03 | 0.41 | 0.03 | 92 | 1013.0 |
| 20260505063622 | 6 | 195 | 1.6 | 8.0 | 0.03 | 0.41 | 0.03 | 92 | 1012.9 |
| 20260505063422 | 6 | 205 | 0.0 | 6.4 | 0.00 | 0.38 | 0.03 | 92 | 1012.9 |
| 20260505063222 | 6 | 122 | 0.0 | 0.0 | 0.00 | 0.38 | 0.00 | 91 | 1013.0 |
| 20260505063135 | 6 | 122 | 0.0 | 0.0 | 0.00 | 0.38 | 0.00 | 91 | 1012.9 |
| 20260505063023 | 6 | 122 | 0.0 | 0.0 | 0.00 | 0.38 | 0.00 | 91 | 1012.9 |
| 20260505062821 | 6 | 122 | 0.0 | 3.2 | 0.00 | 0.38 | 0.00 | 91 | 1012.9 |
| 20260505062620 | 6 | 122 | 0.0 | 3.2 | 0.00 | 0.38 | 0.00 | 91 | 1012.9 |
| 20260505062418 | 6 | 122 | 1.6 | 3.2 | 0.00 | 0.38 | 0.00 | 91 | 1012.9 |
| 20260505062218 | 6 | 122 | 1.6 | 3.2 | 0.00 | 0.38 | 0.00 | 92 | 1012.8 |
| 20260505062133 | 6 | 122 | 1.6 | 3.2 | 0.00 | 0.38 | 0.00 | 92 | 1012.8 |
| 20260505062018 | 6 | 122 | 1.6 | 3.2 | 0.00 | 0.38 | 0.00 | 92 | 1012.9 |
| 20260505061816 | 6 | 122 | 1.6 | 4.8 | 0.00 | 0.38 | 0.00 | 92 | 1012.9 |
| 20260505061614 | 6 | 122 | 1.6 | 4.8 | 0.00 | 0.38 | 0.00 | 92 | 1012.8 |
| 20260505061414 | 6 | 122 | 1.6 | 4.8 | 0.03 | 0.38 | 0.00 | 92 | 1012.9 |
| 20260505061210 | 6 | 120 | 1.6 | 4.8 | 0.03 | 0.38 | 0.00 | 92 | 1012.8 |
| 20260505061136 | 6 | 120 | 1.6 | 4.8 | 0.03 | 0.38 | 0.00 | 92 | 1012.8 |
| 20260505061131 | 6 | 169 | 1.6 | 3.2 | 0.05 | 0.38 | 0.00 | 92 | 1012.9 |
| 20260505061008 | 6 | 120 | 1.6 | 4.8 | 0.03 | 0.38 | 0.00 | 92 | 1012.8 |
| 20260505060810 | 6 | 169 | 1.6 | 3.2 | 0.05 | 0.38 | 0.00 | 92 | 1012.9 |
| 20260505060608 | 6 | 169 | 1.6 | 3.2 | 0.05 | 0.38 | 0.00 | 92 | 1012.9 |
| 20260505060408 | 6 | 169 | 1.6 | 3.2 | 0.05 | 0.38 | 0.00 | 93 | 1012.9 |
| 20260505060209 | 6 | 169 | 1.6 | 3.2 | 0.05 | 0.38 | 0.00 | 93 | 1012.9 |
| 20260505060130 | 6 | 169 | 1.6 | 3.2 | 0.08 | 0.38 | 0.00 | 93 | 1012.9 |
| 20260505060008 | 6 | 169 | 1.6 | 3.2 | 0.08 | 0.38 | 0.00 | 93 | 1012.9 |
| 20260505055803 | 6 | 169 | 1.6 | 3.2 | 0.08 | 0.38 | 0.38 | 93 | 1012.8 |
| 20260505055626 | 6 | 169 | 1.6 | 3.2 | 0.08 | 0.38 | 0.38 | 93 | 1012.8 |
| 20260505055602 | 6 | 169 | 1.6 | 6.4 | 0.08 | 0.38 | 0.38 | 93 | 1012.8 |
| 20260505055400 | 6 | 169 | 1.6 | 6.4 | 0.10 | 0.38 | 0.38 | 93 | 1012.8 |
| 20260505055202 | 6 | 169 | 1.6 | 6.4 | 0.10 | 0.38 | 0.38 | 93 | 1012.8 |
| 20260505055133 | 6 | 169 | 1.6 | 6.4 | 0.10 | 0.38 | 0.38 | 93 | 1012.9 |
| 20260505055127 | 6 | 169 | 1.6 | 6.4 | 0.10 | 0.38 | 0.38 | 93 | 1012.8 |
| 20260505055002 | 6 | 169 | 1.6 | 6.4 | 0.10 | 0.38 | 0.38 | 93 | 1012.8 |
| 20260505054801 | 6 | 169 | 1.6 | 6.4 | 0.10 | 0.38 | 0.38 | 93 | 1012.9 |
| 20260505054601 | 6 | 167 | 1.6 | 6.4 | 0.10 | 0.38 | 0.38 | 93 | 1012.9 |
| 20260505054402 | 6 | 167 | 1.6 | 6.4 | 0.13 | 0.38 | 0.38 | 93 | 1012.9 |
| 20260505054201 | 6 | 167 | 3.2 | 6.4 | 0.13 | 0.38 | 0.38 | 94 | 1012.9 |
| 20260505054126 | 6 | 171 | 3.2 | 6.4 | 0.13 | 0.38 | 0.38 | 94 | 1012.9 |
| 20260505054001 | 6 | 171 | 3.2 | 6.4 | 0.15 | 0.38 | 0.38 | 94 | 1012.8 |
| 20260505053801 | 6 | 167 | 3.2 | 6.4 | 0.15 | 0.38 | 0.38 | 93 | 1012.8 |
| 20260505053624 | 6 | 155 | 3.2 | 4.8 | 0.18 | 0.38 | 0.38 | 93 | 1012.6 |
| 20260505053601 | 6 | 155 | 3.2 | 6.4 | 0.18 | 0.38 | 0.38 | 93 | 1012.6 |
| 20260505053401 | 6 | 147 | 3.2 | 6.4 | 0.18 | 0.38 | 0.38 | 93 | 1012.5 |
| 20260505053201 | 6 | 123 | 4.8 | 8.0 | 0.18 | 0.38 | 0.38 | 93 | 1012.5 |
| 20260505053124 | 6 | 113 | 4.8 | 9.7 | 0.18 | 0.38 | 0.38 | 93 | 1012.5 |
| 20260505053002 | 6 | 113 | 4.8 | 9.7 | 0.18 | 0.38 | 0.38 | 93 | 1012.5 |
| 20260505052801 | 6 | 89 | 4.8 | 9.7 | 0.18 | 0.38 | 0.38 | 93 | 1012.5 |
| 20260505052624 | 6 | 95 | 4.8 | 9.7 | 0.18 | 0.38 | 0.38 | 93 | 1012.6 |
| 20260505052602 | 6 | 103 | 4.8 | 9.7 | 0.18 | 0.38 | 0.38 | 93 | 1012.6 |
| 20260505052359 | 6 | 80 | 3.2 | 9.7 | 0.18 | 0.38 | 0.38 | 93 | 1012.6 |
| 20260505052159 | 6 | 87 | 1.6 | 9.7 | 0.18 | 0.38 | 0.38 | 93 | 1012.6 |
| 20260505052125 | 6 | 86 | 1.6 | 6.4 | 0.18 | 0.38 | 0.38 | 93 | 1012.6 |
| 20260505051958 | 6 | 94 | 1.6 | 4.8 | 0.18 | 0.38 | 0.38 | 93 | 1012.6 |
| 20260505051759 | 6 | 102 | 1.6 | 4.8 | 0.18 | 0.38 | 0.38 | 93 | 1012.8 |
| 20260505051624 | 6 | 59 | 1.6 | 4.8 | 0.18 | 0.38 | 0.38 | 93 | 1012.9 |
| 20260505051601 | 6 | 59 | 1.6 | 6.4 | 0.18 | 0.38 | 0.38 | 93 | 1012.9 |
| 20260505051401 | 6 | 346 | 3.2 | 8.0 | 0.15 | 0.36 | 0.36 | 93 | 1013.0 |
| 20260505051158 | 6 | 331 | 3.2 | 8.0 | 0.15 | 0.36 | 0.36 | 93 | 1013.2 |
| 20260505051125 | 6 | 331 | 3.2 | 8.0 | 0.15 | 0.36 | 0.36 | 93 | 1013.2 |
| 20260505050959 | 6 | 331 | 4.8 | 8.0 | 0.15 | 0.36 | 0.36 | 93 | 1013.4 |
| 20260505050759 | 6 | 340 | 4.8 | 8.0 | 0.13 | 0.33 | 0.33 | 93 | 1013.5 |
| 20260505050630 | 6 | 303 | 6.4 | 12.9 | 0.10 | 0.30 | 0.33 | 93 | 1013.5 |
| 20260505050624 | 6 | 317 | 4.8 | 8.0 | 0.13 | 0.33 | 0.33 | 93 | 1013.5 |
| 20260505050559 | 6 | 325 | 4.8 | 8.0 | 0.13 | 0.33 | 0.33 | 93 | 1013.5 |
| 20260505050359 | 6 | 296 | 4.8 | 11.3 | 0.13 | 0.33 | 0.33 | 93 | 1013.5 |
| 20260505050236 | 6 | 308 | 6.4 | 12.9 | 0.13 | 0.33 | 0.33 | 93 | 1013.5 |
| 20260505041758 | 7 | 336 | 1.6 | 4.8 | 0.18 | 0.20 | 0.20 | 89 | 1013.2 |
| 20260505041624 | 7 | 345 | 1.6 | 4.8 | 0.18 | 0.20 | 0.20 | 89 | 1013.2 |
| 20260505041557 | 7 | 345 | 1.6 | 4.8 | 0.18 | 0.20 | 0.20 | 89 | 1013.2 |
| 20260505041358 | 7 | 345 | 1.6 | 4.8 | 0.18 | 0.20 | 0.20 | 89 | 1013.0 |
| 20260505041157 | 7 | 345 | 1.6 | 4.8 | 0.18 | 0.20 | 0.20 | 89 | 1013.1 |
| 20260505041130 | 7 | 345 | 1.6 | 4.8 | 0.18 | 0.20 | 0.20 | 88 | 1013.0 |
| 20260505041125 | 7 | 345 | 1.6 | 4.8 | 0.18 | 0.20 | 0.20 | 89 | 1013.1 |
| 20260505040957 | 7 | 345 | 1.6 | 4.8 | 0.18 | 0.20 | 0.20 | 89 | 1013.1 |
| 20260505040756 | 7 | 345 | 1.6 | 4.8 | 0.18 | 0.20 | 0.20 | 89 | 1013.0 |
| 20260505040558 | 7 | 345 | 0.0 | 4.8 | 0.18 | 0.20 | 0.20 | 88 | 1013.0 |
| 20260505040358 | 7 | 351 | 0.0 | 3.2 | 0.18 | 0.20 | 0.20 | 88 | 1012.9 |
| 20260505040156 | 7 | 355 | 0.0 | 0.0 | 0.18 | 0.20 | 0.20 | 88 | 1012.9 |
| 20260505040126 | 7 | 355 | 0.0 | 1.6 | 0.18 | 0.20 | 0.20 | 88 | 1012.9 |
| 20260505035957 | 7 | 355 | 0.0 | 3.2 | 0.18 | 0.20 | 0.20 | 87 | 1012.9 |
| 20260505035758 | 7 | 355 | 1.6 | 3.2 | 0.18 | 0.20 | 0.20 | 87 | 1012.8 |
| 20260505035625 | 7 | 355 | 1.6 | 3.2 | 0.18 | 0.20 | 0.20 | 87 | 1012.8 |
| 20260505035556 | 7 | 355 | 1.6 | 3.2 | 0.15 | 0.18 | 0.18 | 87 | 1012.8 |
| 20260505035356 | 7 | 355 | 1.6 | 3.2 | 0.15 | 0.18 | 0.18 | 86 | 1012.6 |
| 20260505035158 | 7 | 355 | 1.6 | 3.2 | 0.15 | 0.18 | 0.18 | 86 | 1012.8 |
| 20260505035124 | 7 | 355 | 1.6 | 3.2 | 0.15 | 0.18 | 0.18 | 86 | 1012.8 |
| 20260505034958 | 7 | 355 | 1.6 | 3.2 | 0.13 | 0.15 | 0.18 | 85 | 1012.8 |
| 20260505034756 | 7 | 355 | 1.6 | 3.2 | 0.13 | 0.15 | 0.15 | 85 | 1012.8 |
| 20260505034625 | 7 | 355 | 0.0 | 3.2 | 0.13 | 0.15 | 0.15 | 85 | 1012.9 |
| 20260505034557 | 7 | 355 | 0.0 | 3.2 | 0.13 | 0.15 | 0.15 | 85 | 1012.9 |
| 20260505034358 | 7 | 270 | 0.0 | 3.2 | 0.10 | 0.13 | 0.15 | 86 | 1012.9 |
| 20260505034158 | 7 | 270 | 1.6 | 3.2 | 0.10 | 0.13 | 0.13 | 86 | 1012.8 |
| 20260505034126 | 7 | 270 | 1.6 | 3.2 | 0.10 | 0.13 | 0.13 | 86 | 1012.8 |
| 20260505033958 | 7 | 270 | 1.6 | 6.4 | 0.10 | 0.13 | 0.13 | 85 | 1012.9 |
| 20260505033758 | 7 | 270 | 3.2 | 6.4 | 0.08 | 0.10 | 0.13 | 85 | 1012.9 |
| 20260505033625 | 8 | 270 | 3.2 | 9.7 | 0.08 | 0.10 | 0.10 | 85 | 1013.0 |
| 20260505033558 | 8 | 270 | 3.2 | 9.7 | 0.08 | 0.10 | 0.10 | 85 | 1012.9 |
| 20260505033358 | 8 | 270 | 4.8 | 9.7 | 0.08 | 0.10 | 0.10 | 84 | 1013.0 |
| 20260505033157 | 8 | 261 | 4.8 | 9.7 | 0.08 | 0.10 | 0.10 | 84 | 1013.0 |
| 20260505033132 | 8 | 234 | 3.2 | 6.4 | 0.00 | 0.03 | 0.05 | 81 | 1012.9 |
| 20260505033126 | 8 | 265 | 4.8 | 9.7 | 0.05 | 0.08 | 0.08 | 84 | 1013.0 |
| 20260505032956 | 8 | 248 | 4.8 | 9.7 | 0.05 | 0.08 | 0.08 | 83 | 1012.9 |
| 20260505032756 | 8 | 266 | 4.8 | 9.7 | 0.05 | 0.08 | 0.08 | 83 | 1012.9 |
| 20260505032625 | 8 | 265 | 4.8 | 9.7 | 0.03 | 0.05 | 0.05 | 82 | 1012.9 |
| 20260505032557 | 8 | 263 | 4.8 | 8.0 | 0.03 | 0.05 | 0.05 | 82 | 1012.8 |
| 20260505032357 | 8 | 247 | 4.8 | 8.0 | 0.03 | 0.05 | 0.05 | 82 | 1012.9 |
| 20260505032236 | 8 | 237 | 3.2 | 6.4 | 0.00 | 0.03 | 0.05 | 81 | 1012.9 |
| 20260505031957 | 8 | 236 | 3.2 | 6.4 | 0.00 | 0.03 | 0.03 | 81 | 1012.8 |
| 20260505031758 | 8 | 242 | 3.2 | 6.4 | 0.00 | 0.03 | 0.03 | 80 | 1012.6 |
| 20260505031626 | 8 | 242 | 3.2 | 6.4 | 0.00 | 0.03 | 0.03 | 80 | 1012.8 |
| 20260505031557 | 8 | 242 | 3.2 | 6.4 | 0.00 | 0.03 | 0.03 | 78 | 1012.8 |
| 20260505031401 | 8 | 238 | 3.2 | 4.8 | 0.00 | 0.03 | 0.03 | 78 | 1012.6 |
| 20260505031157 | 8 | 253 | 3.2 | 4.8 | 0.00 | 0.03 | 0.03 | 78 | 1012.6 |
| 20260505031131 | 8 | 225 | 1.6 | 3.2 | 0.00 | 0.03 | 0.03 | 80 | 1012.5 |
| 20260505031126 | 8 | 253 | 3.2 | 4.8 | 0.00 | 0.03 | 0.03 | 78 | 1012.6 |
| 20260505030958 | 8 | 244 | 1.6 | 4.8 | 0.00 | 0.03 | 0.03 | 79 | 1012.6 |
| 20260505030758 | 8 | 237 | 1.6 | 3.2 | 0.00 | 0.03 | 0.03 | 80 | 1012.6 |
| 20260505030557 | 8 | 221 | 1.6 | 3.2 | 0.00 | 0.03 | 0.03 | 80 | 1012.6 |
| 20260505030358 | 8 | 211 | 1.6 | 3.2 | 0.00 | 0.03 | 0.03 | 79 | 1012.4 |
| 20260505030158 | 8 | 215 | 1.6 | 3.2 | 0.00 | 0.03 | 0.03 | 79 | 1012.4 |
| 20260505030126 | 8 | 217 | 1.6 | 3.2 | 0.00 | 0.03 | 0.03 | 79 | 1012.4 |
| 20260505025958 | 8 | 217 | 1.6 | 3.2 | 0.00 | 0.03 | 0.03 | 79 | 1012.3 |
| 20260505025758 | 8 | 221 | 1.6 | 3.2 | 0.00 | 0.03 | 0.03 | 79 | 1012.3 |
| 20260505025624 | 8 | 221 | 1.6 | 3.2 | 0.00 | 0.03 | 0.03 | 79 | 1012.3 |
| 20260505025558 | 8 | 222 | 1.6 | 3.2 | 0.00 | 0.03 | 0.03 | 79 | 1012.3 |
| 20260505025357 | 8 | 222 | 1.6 | 4.8 | 0.00 | 0.03 | 0.03 | 79 | 1012.3 |
| 20260505025158 | 8 | 222 | 3.2 | 4.8 | 0.00 | 0.03 | 0.03 | 78 | 1012.2 |
| 20260505025132 | 8 | 223 | 6.4 | 9.7 | 0.00 | 0.03 | 0.03 | 77 | 1011.9 |
| 20260505025126 | 8 | 222 | 3.2 | 6.4 | 0.00 | 0.03 | 0.03 | 78 | 1012.2 |
| 20260505024956 | 8 | 212 | 3.2 | 6.4 | 0.00 | 0.03 | 0.03 | 78 | 1012.3 |
| 20260505024758 | 8 | 212 | 4.8 | 8.0 | 0.00 | 0.03 | 0.03 | 78 | 1012.2 |
| 20260505024626 | 8 | 212 | 4.8 | 9.7 | 0.00 | 0.03 | 0.03 | 78 | 1012.2 |
| 20260505024557 | 8 | 213 | 4.8 | 9.7 | 0.00 | 0.03 | 0.03 | 78 | 1012.2 |
| 20260505024356 | 8 | 210 | 6.4 | 9.7 | 0.00 | 0.03 | 0.03 | 78 | 1012.0 |
| 20260505024235 | 8 | 223 | 6.4 | 9.7 | 0.00 | 0.03 | 0.03 | 77 | 1011.9 |
| 20260505023957 | 8 | 217 | 6.4 | 9.7 | 0.00 | 0.03 | 0.03 | 77 | 1011.9 |
| 20260505023757 | 8 | 232 | 6.4 | 11.3 | 0.00 | 0.03 | 0.03 | 77 | 1011.9 |
| 20260505023626 | 8 | 244 | 6.4 | 11.3 | 0.00 | 0.03 | 0.03 | 77 | 1011.9 |
| 20260505023557 | 8 | 231 | 4.8 | 11.3 | 0.00 | 0.03 | 0.03 | 76 | 1011.9 |
| 20260505023356 | 8 | 244 | 4.8 | 11.3 | 0.00 | 0.03 | 0.03 | 76 | 1011.9 |
| 20260505023156 | 8 | 236 | 3.2 | 11.3 | 0.00 | 0.03 | 0.03 | 76 | 1011.9 |
| 20260505023124 | 8 | 234 | 3.2 | 11.3 | 0.00 | 0.03 | 0.03 | 76 | 1011.9 |
| 20260505022958 | 8 | 252 | 3.2 | 11.3 | 0.00 | 0.03 | 0.03 | 75 | 1011.9 |
| 20260505022756 | 8 | 249 | 3.2 | 4.8 | 0.00 | 0.03 | 0.03 | 75 | 1011.8 |
| 20260505022625 | 8 | 277 | 3.2 | 4.8 | 0.00 | 0.03 | 0.03 | 74 | 1011.8 |
| 20260505022556 | 8 | 282 | 3.2 | 4.8 | 0.00 | 0.03 | 0.03 | 74 | 1011.8 |
| 20260505022356 | 8 | 293 | 3.2 | 4.8 | 0.00 | 0.03 | 0.03 | 74 | 1011.8 |
| 20260505022156 | 8 | 291 | 3.2 | 6.4 | 0.03 | 0.03 | 0.03 | 73 | 1011.5 |
| 20260505022124 | 8 | 291 | 3.2 | 6.4 | 0.03 | 0.03 | 0.03 | 73 | 1011.5 |
| 20260505021953 | 9 | 265 | 3.2 | 8.0 | 0.03 | 0.03 | 0.03 | 73 | 1011.7 |
| 20260505021753 | 9 | 247 | 3.2 | 8.0 | 0.03 | 0.03 | 0.03 | 72 | 1011.7 |
| 20260505021624 | 9 | 242 | 3.2 | 8.0 | 0.03 | 0.03 | 0.03 | 72 | 1011.7 |
| 20260505021554 | 9 | 242 | 3.2 | 8.0 | 0.03 | 0.03 | 0.03 | 73 | 1011.5 |
| 20260505021350 | 9 | 242 | 3.2 | 8.0 | 0.03 | 0.03 | 0.03 | 72 | 1011.5 |
| 20260505021152 | 9 | 228 | 3.2 | 8.0 | 0.03 | 0.03 | 0.03 | 71 | 1011.5 |
| 20260505021125 | 9 | 229 | 3.2 | 8.0 | 0.03 | 0.03 | 0.03 | 71 | 1011.5 |
| 20260505020951 | 9 | 224 | 1.6 | 6.4 | 0.03 | 0.03 | 0.03 | 71 | 1011.5 |
| 20260505020750 | 9 | 236 | 1.6 | 4.8 | 0.03 | 0.03 | 0.03 | 72 | 1011.5 |
| 20260505020625 | 9 | 236 | 0.0 | 4.8 | 0.03 | 0.03 | 0.03 | 72 | 1011.5 |
| 20260505020546 | 9 | 244 | 0.0 | 4.8 | 0.03 | 0.03 | 0.03 | 72 | 1011.5 |
| 20260505020346 | 9 | 32 | 0.0 | 3.2 | 0.03 | 0.03 | 0.03 | 71 | 1011.7 |
| 20260505020124 | 9 | 32 | 1.6 | 3.2 | 0.03 | 0.03 | 0.03 | 70 | 1011.8 |
| 20260505015944 | 9 | 32 | 1.6 | 6.4 | 0.03 | 0.03 | 0.03 | 70 | 1011.8 |
| 20260505015742 | 9 | 32 | 1.6 | 6.4 | 0.03 | 0.03 | 0.03 | 71 | 1011.8 |
| 20260505015626 | 9 | 32 | 1.6 | 6.4 | 0.03 | 0.03 | 0.03 | 71 | 1011.8 |
| 20260505015539 | 9 | 32 | 1.6 | 6.4 | 0.03 | 0.03 | 0.03 | 71 | 1011.8 |
| 20260505015340 | 9 | 32 | 1.6 | 6.4 | 0.03 | 0.03 | 0.03 | 71 | 1011.7 |
| 20260505015123 | 9 | 45 | 1.6 | 6.4 | 0.03 | 0.03 | 0.03 | 71 | 1011.5 |
| 20260505014936 | 9 | 355 | 1.6 | 3.2 | 0.03 | 0.03 | 0.03 | 71 | 1011.7 |
| 20260505014737 | 9 | 309 | 0.0 | 3.2 | 0.03 | 0.03 | 0.03 | 72 | 1011.7 |
| 20260505014623 | 9 | 309 | 0.0 | 3.2 | 0.03 | 0.03 | 0.03 | 72 | 1011.7 |
| 20260505014536 | 9 | 275 | 0.0 | 3.2 | 0.03 | 0.03 | 0.03 | 72 | 1011.7 |
| 20260505014336 | 9 | 275 | 0.0 | 3.2 | 0.03 | 0.03 | 0.03 | 72 | 1011.5 |
| 20260505014123 | 10 | 275 | 0.0 | 3.2 | 0.03 | 0.03 | 0.03 | 71 | 1011.4 |
| 20260505013936 | 10 | 275 | 1.6 | 4.8 | 0.03 | 0.03 | 0.03 | 70 | 1011.2 |
| 20260505013733 | 10 | 275 | 1.6 | 9.7 | 0.03 | 0.03 | 0.03 | 69 | 1011.1 |
| 20260505013620 | 10 | 275 | 1.6 | 9.7 | 0.03 | 0.03 | 0.03 | 68 | 1011.1 |
| 20260505013535 | 10 | 275 | 1.6 | 9.7 | 0.03 | 0.03 | 0.03 | 68 | 1011.1 |
| 20260505013336 | 10 | 271 | 3.2 | 9.7 | 0.03 | 0.03 | 0.03 | 68 | 1011.2 |
| 20260505013120 | 10 | 271 | 3.2 | 9.7 | 0.03 | 0.03 | 0.03 | 68 | 1011.3 |
| 20260505012936 | 10 | 287 | 3.2 | 9.7 | 0.03 | 0.03 | 0.03 | 67 | 1011.4 |
| 20260505012735 | 10 | 250 | 3.2 | 8.0 | 0.03 | 0.03 | 0.03 | 68 | 1011.4 |
| 20260505012620 | 10 | 294 | 1.6 | 8.0 | 0.03 | 0.03 | 0.03 | 67 | 1011.4 |
| 20260505012537 | 10 | 294 | 1.6 | 8.0 | 0.03 | 0.03 | 0.03 | 66 | 1011.5 |
| 20260505012335 | 10 | 297 | 1.6 | 8.0 | 0.03 | 0.03 | 0.03 | 66 | 1011.5 |
| 20260505012134 | 10 | 317 | 0.0 | 3.2 | 0.00 | 0.00 | 0.03 | 65 | 1011.5 |
| 20260505012120 | 10 | 325 | 0.0 | 3.2 | 0.00 | 0.00 | 0.00 | 65 | 1011.5 |
| 20260505011930 | 10 | 325 | 0.0 | 4.8 | 0.00 | 0.00 | 0.00 | 66 | 1011.5 |
| 20260505011728 | 10 | 325 | 1.6 | 6.4 | 0.00 | 0.00 | 0.00 | 64 | 1011.5 |
| 20260505011622 | 10 | 325 | 1.6 | 6.4 | 0.00 | 0.00 | 0.00 | 64 | 1011.4 |
| 20260505011526 | 10 | 325 | 3.2 | 8.0 | 0.00 | 0.00 | 0.00 | 63 | 1011.4 |
| 20260505011326 | 10 | 325 | 3.2 | 8.0 | 0.00 | 0.00 | 0.00 | 63 | 1011.4 |
| 20260505011120 | 10 | 325 | 4.8 | 27.4 | 0.00 | 0.00 | 0.00 | 62 | 1011.5 |
| 20260505010926 | 10 | 308 | 8.0 | 27.4 | 0.00 | 0.00 | 0.00 | 62 | 1011.5 |
| 20260505010726 | 10 | 313 | 8.0 | 27.4 | 0.00 | 0.00 | 0.00 | 62 | 1011.5 |
| 20260505010621 | 10 | 320 | 9.7 | 27.4 | 0.00 | 0.00 | 0.00 | 62 | 1011.4 |
| 20260505010523 | 10 | 326 | 11.3 | 27.4 | 0.00 | 0.00 | 0.00 | 62 | 1011.4 |
| 20260505010323 | 11 | 310 | 12.9 | 27.4 | 0.00 | 0.00 | 0.00 | 64 | 1011.4 |
| 20260505010120 | 11 | 279 | 16.1 | 27.4 | 0.00 | 0.00 | 0.00 | 63 | 1011.4 |
| 20260505005920 | 11 | 301 | 16.1 | 27.4 | 0.00 | 0.00 | 0.00 | 60 | 1011.4 |
| 20260505005722 | 11 | 270 | 17.7 | 27.4 | 0.00 | 0.00 | 0.00 | 58 | 1011.3 |
| 20260505005620 | 11 | 304 | 17.7 | 27.4 | 0.00 | 0.00 | 0.00 | 57 | 1011.4 |
| 20260505005518 | 11 | 311 | 19.3 | 27.4 | 0.00 | 0.00 | 0.00 | 56 | 1011.4 |
| 20260505005318 | 11 | 326 | 17.7 | 30.6 | 0.00 | 0.00 | 0.00 | 53 | 1011.2 |
| 20260505005124 | 12 | 319 | 17.7 | 30.6 | 0.00 | 0.00 | 0.00 | 53 | 1011.2 |
| 20260505005120 | 12 | 335 | 17.7 | 30.6 | 0.00 | 0.00 | 0.00 | 53 | 1011.2 |
| 20260505004923 | 12 | 331 | 17.7 | 30.6 | 0.00 | 0.00 | 0.00 | 52 | 1011.2 |
| 20260505004719 | 12 | 315 | 17.7 | 30.6 | 0.00 | 0.00 | 0.00 | 50 | 1011.2 |
| 20260505004622 | 12 | 321 | 16.1 | 30.6 | 0.00 | 0.00 | 0.00 | 50 | 1011.2 |
| 20260505004518 | 12 | 325 | 16.1 | 30.6 | 0.00 | 0.00 | 0.00 | 49 | 1011.2 |
| 20260505004319 | 12 | 300 | 16.1 | 25.7 | 0.00 | 0.00 | 0.00 | 49 | 1011.2 |
| 20260505004118 | 12 | 309 | 14.5 | 25.7 | 0.00 | 0.00 | 0.00 | 48 | 1011.1 |
| 20260505003918 | 12 | 315 | 12.9 | 20.9 | 0.00 | 0.00 | 0.00 | 48 | 1011.1 |
| 20260505003720 | 12 | 312 | 12.9 | 20.9 | 0.00 | 0.00 | 0.00 | 48 | 1010.9 |
| 20260505003620 | 13 | 308 | 11.3 | 20.9 | 0.00 | 0.00 | 0.00 | 47 | 1010.9 |
| 20260505003519 | 13 | 273 | 11.3 | 20.9 | 0.00 | 0.00 | 0.00 | 47 | 1011.1 |
| 20260505003318 | 13 | 310 | 9.7 | 20.9 | 0.00 | 0.00 | 0.00 | 47 | 1011.1 |
| 20260505003118 | 13 | 298 | 8.0 | 20.9 | 0.00 | 0.00 | 0.00 | 44 | 1011.1 |
| 20260505002919 | 13 | 280 | 6.4 | 14.5 | 0.00 | 0.00 | 0.00 | 43 | 1011.1 |
| 20260505002718 | 13 | 297 | 4.8 | 14.5 | 0.00 | 0.00 | 0.00 | 44 | 1011.1 |
| 20260505002619 | 13 | 294 | 4.8 | 14.5 | 0.00 | 0.00 | 0.00 | 44 | 1011.1 |
| 20260505002518 | 13 | 294 | 4.8 | 14.5 | 0.00 | 0.00 | 0.00 | 44 | 1011.1 |
| 20260505002316 | 13 | 5 | 4.8 | 12.9 | 0.00 | 0.00 | 0.00 | 44 | 1011.1 |
| 20260505002126 | 13 | 78 | 11.3 | 27.4 | 0.00 | 0.00 | 0.00 | 45 | 1010.8 |
| 20260505002116 | 13 | 228 | 4.8 | 11.3 | 0.00 | 0.00 | 0.00 | 44 | 1010.9 |
| 20260505001918 | 13 | 15 | 6.4 | 19.3 | 0.00 | 0.00 | 0.00 | 44 | 1010.8 |
| 20260505001714 | 13 | 69 | 9.7 | 20.9 | 0.00 | 0.00 | 0.00 | 44 | 1010.8 |
| 20260505001649 | 13 | 69 | 14.5 | 27.4 | 0.00 | 0.00 | 0.00 | 45 | 1010.7 |
| 20260505001514 | 13 | 93 | 12.9 | 27.4 | 0.00 | 0.00 | 0.00 | 45 | 1010.8 |
| 20260505001312 | 13 | 76 | 12.9 | 27.4 | 0.00 | 0.00 | 0.00 | 45 | 1010.8 |
| 20260505001238 | 13 | 76 | 11.3 | 24.1 | 0.00 | 0.00 | 0.00 | 44 | 1010.6 |
| 20260505001114 | 13 | 76 | 14.5 | 27.4 | 0.00 | 0.00 | 0.00 | 45 | 1010.7 |
| 20260505000913 | 13 | 84 | 14.5 | 27.4 | 0.00 | 0.00 | 0.00 | 44 | 1010.6 |
| 20260505000732 | 13 | 88 | 12.9 | 27.4 | 0.00 | 0.00 | 0.00 | 44 | 1010.6 |
| 20260505000512 | 13 | 84 | 11.3 | 24.1 | 0.00 | 0.00 | 0.00 | 43 | 1010.6 |
| 20260505000311 | 13 | 78 | 9.7 | 24.1 | 0.00 | 0.00 | 0.00 | 43 | 1010.6 |
| 20260505000117 | 13 | 69 | 11.3 | 24.1 | 0.00 | 0.00 | 0.00 | 42 | 1010.5 |
| 20260505000112 | 13 | 73 | 11.3 | 24.1 | 0.00 | 0.00 | 0.00 | 42 | 1010.5 |
| 20260504235911 | 13 | 76 | 9.7 | 22.5 | 0.00 | 0.00 | 0.00 | 42 | 1010.6 |
| 20260504235711 | 13 | 50 | 9.7 | 22.5 | 0.00 | 0.00 | 0.00 | 42 | 1010.5 |
| 20260504235616 | 13 | 71 | 9.7 | 22.5 | 0.00 | 0.00 | 0.00 | 41 | 1010.6 |
| 20260504235509 | 13 | 73 | 9.7 | 22.5 | 0.00 | 0.00 | 0.00 | 41 | 1010.6 |
| 20260504235309 | 13 | 109 | 9.7 | 22.5 | 0.00 | 0.00 | 0.00 | 41 | 1010.5 |
| 20260504235122 | 13 | 22 | 9.7 | 22.5 | 0.00 | 0.00 | 0.00 | 40 | 1010.3 |
| 20260504235116 | 13 | 63 | 8.0 | 20.9 | 0.00 | 0.00 | 0.00 | 41 | 1010.5 |
| 20260504235109 | 13 | 55 | 8.0 | 20.9 | 0.00 | 0.00 | 0.00 | 41 | 1010.5 |
| 20260504234910 | 13 | 30 | 8.0 | 22.5 | 0.00 | 0.00 | 0.00 | 40 | 1010.5 |
| 20260504234743 | 14 | 115 | 11.3 | 22.5 | 0.00 | 0.00 | 0.00 | 41 | 1010.3 |
| 20260504234732 | 13 | 26 | 9.7 | 22.5 | 0.00 | 0.00 | 0.00 | 40 | 1010.3 |
| 20260504234509 | 13 | 26 | 9.7 | 22.5 | 0.00 | 0.00 | 0.00 | 39 | 1010.3 |
| 20260504234306 | 14 | 67 | 9.7 | 22.5 | 0.00 | 0.00 | 0.00 | 40 | 1010.3 |
| 20260504234108 | 14 | 163 | 11.3 | 22.5 | 0.00 | 0.00 | 0.00 | 41 | 1010.3 |
| 20260504233907 | 14 | 51 | 11.3 | 19.3 | 0.00 | 0.00 | 0.00 | 39 | 1010.3 |
| 20260504233707 | 15 | 40 | 11.3 | 19.3 | 0.00 | 0.00 | 0.00 | 37 | 1010.3 |
| 20260504233617 | 15 | 44 | 11.3 | 17.7 | 0.00 | 0.00 | 0.00 | 37 | 1010.3 |
| 20260504233507 | 15 | 5 | 11.3 | 17.7 | 0.00 | 0.00 | 0.00 | 37 | 1010.2 |
| 20260504233307 | 15 | 13 | 11.3 | 19.3 | 0.00 | 0.00 | 0.00 | 36 | 1010.2 |
| 20260504233114 | 15 | 38 | 11.3 | 19.3 | 0.00 | 0.00 | 0.00 | 36 | 1010.3 |
| 20260504233105 | 15 | 37 | 11.3 | 19.3 | 0.00 | 0.00 | 0.00 | 36 | 1010.3 |
| 20260504232904 | 15 | 11 | 11.3 | 19.3 | 0.00 | 0.00 | 0.00 | 36 | 1010.1 |
| 20260504232706 | 15 | 35 | 11.3 | 19.3 | 0.00 | 0.00 | 0.00 | 37 | 1010.2 |
| 20260504232616 | 15 | 38 | 11.3 | 19.3 | 0.00 | 0.00 | 0.00 | 38 | 1010.2 |
| 20260504232506 | 15 | 48 | 11.3 | 19.3 | 0.00 | 0.00 | 0.00 | 37 | 1010.2 |
| 20260504232306 | 15 | 23 | 11.3 | 19.3 | 0.00 | 0.00 | 0.00 | 38 | 1010.1 |
| 20260504232119 | 15 | 29 | 14.5 | 27.4 | 0.00 | 0.00 | 0.00 | 35 | 1010.2 |
| 20260504232113 | 15 | 46 | 12.9 | 19.3 | 0.00 | 0.00 | 0.00 | 37 | 1010.1 |
| 20260504232105 | 15 | 28 | 12.9 | 19.3 | 0.00 | 0.00 | 0.00 | 37 | 1010.1 |
| 20260504231904 | 15 | 46 | 12.9 | 27.4 | 0.00 | 0.00 | 0.00 | 36 | 1010.2 |
| 20260504231730 | 15 | 52 | 14.5 | 27.4 | 0.00 | 0.00 | 0.00 | 35 | 1010.2 |
| 20260504231502 | 15 | 49 | 14.5 | 27.4 | 0.00 | 0.00 | 0.00 | 35 | 1010.1 |
| 20260504231303 | 15 | 41 | 16.1 | 29.0 | 0.00 | 0.00 | 0.00 | 34 | 1010.0 |
| 20260504231115 | 15 | 34 | 16.1 | 29.0 | 0.00 | 0.00 | 0.00 | 34 | 1009.9 |
| 20260504231103 | 15 | 5 | 16.1 | 29.0 | 0.00 | 0.00 | 0.00 | 34 | 1009.9 |
| 20260504230903 | 15 | 26 | 16.1 | 29.0 | 0.00 | 0.00 | 0.00 | 34 | 1010.0 |
| 20260504230701 | 15 | 20 | 16.1 | 29.0 | 0.00 | 0.00 | 0.00 | 34 | 1009.9 |
| 20260504230614 | 15 | 28 | 17.7 | 29.0 | 0.00 | 0.00 | 0.00 | 34 | 1009.9 |
| 20260504230502 | 15 | 5 | 17.7 | 29.0 | 0.00 | 0.00 | 0.00 | 34 | 1009.7 |
| 20260504230302 | 16 | 22 | 17.7 | 29.0 | 0.00 | 0.00 | 0.00 | 33 | 1009.5 |
| 20260504230115 | 16 | 5 | 19.3 | 29.0 | 0.00 | 0.00 | 0.00 | 33 | 1009.4 |
| 20260504225901 | 16 | 348 | 19.3 | 33.8 | 0.00 | 0.00 | 0.00 | 32 | 1009.2 |
| 20260504225702 | 16 | 355 | 16.1 | 33.8 | 0.00 | 0.00 | 0.00 | 32 | 1009.2 |
| 20260504225615 | 16 | 36 | 16.1 | 33.8 | 0.00 | 0.00 | 0.00 | 32 | 1009.2 |
| 20260504225459 | 16 | 331 | 12.9 | 33.8 | 0.00 | 0.00 | 0.00 | 32 | 1009.1 |
| 20260504225259 | 16 | 355 | 11.3 | 33.8 | 0.00 | 0.00 | 0.00 | 31 | 1009.2 |
| 20260504225125 | 17 | 42 | 3.2 | 8.0 | 0.00 | 0.00 | 0.00 | 29 | 1008.6 |
| 20260504225114 | 17 | 10 | 9.7 | 33.8 | 0.00 | 0.00 | 0.00 | 30 | 1009.1 |
| 20260504225100 | 17 | 36 | 9.7 | 33.8 | 0.00 | 0.00 | 0.00 | 30 | 1008.9 |
| 20260504224859 | 17 | 11 | 8.0 | 20.9 | 0.00 | 0.00 | 0.00 | 29 | 1008.9 |
| 20260504224730 | 17 | 5 | 8.0 | 14.5 | 0.00 | 0.00 | 0.00 | 28 | 1008.9 |
| 20260504224614 | 17 | 355 | 8.0 | 14.5 | 0.00 | 0.00 | 0.00 | 28 | 1008.9 |
| 20260504224459 | 17 | 321 | 8.0 | 14.5 | 0.00 | 0.00 | 0.00 | 29 | 1008.8 |
| 20260504224257 | 17 | 329 | 8.0 | 14.5 | 0.00 | 0.00 | 0.00 | 29 | 1008.9 |
| 20260504224112 | 17 | 338 | 6.4 | 14.5 | 0.00 | 0.00 | 0.00 | 29 | 1008.9 |
| 20260504224058 | 17 | 338 | 6.4 | 14.5 | 0.00 | 0.00 | 0.00 | 29 | 1008.8 |
| 20260504223856 | 17 | 355 | 6.4 | 9.7 | 0.00 | 0.00 | 0.00 | 29 | 1008.8 |
| 20260504223730 | 17 | 5 | 4.8 | 9.7 | 0.00 | 0.00 | 0.00 | 29 | 1008.6 |
| 20260504223613 | 17 | 349 | 4.8 | 9.7 | 0.00 | 0.00 | 0.00 | 29 | 1008.6 |
| 20260504223457 | 17 | 9 | 4.8 | 8.0 | 0.00 | 0.00 | 0.00 | 29 | 1008.6 |
| 20260504223257 | 17 | 38 | 3.2 | 8.0 | 0.00 | 0.00 | 0.00 | 27 | 1008.6 |
| 20260504223055 | 17 | 47 | 3.2 | 8.0 | 0.00 | 0.00 | 0.00 | 29 | 1008.5 |
| 20260504222855 | 17 | 21 | 3.2 | 6.4 | 0.00 | 0.00 | 0.00 | 27 | 1008.5 |
| 20260504222655 | 17 | 56 | 3.2 | 8.0 | 0.00 | 0.00 | 0.00 | 28 | 1008.6 |
| 20260504222613 | 17 | 11 | 3.2 | 9.7 | 0.00 | 0.00 | 0.00 | 28 | 1008.6 |
| 20260504222455 | 17 | 20 | 4.8 | 9.7 | 0.00 | 0.00 | 0.00 | 27 | 1008.8 |
| 20260504222254 | 17 | 30 | 6.4 | 14.5 | 0.00 | 0.00 | 0.00 | 27 | 1008.8 |
| 20260504222114 | 17 | 30 | 6.4 | 14.5 | 0.00 | 0.00 | 0.00 | 28 | 1008.8 |
| 20260504222054 | 17 | 5 | 6.4 | 14.5 | 0.00 | 0.00 | 0.00 | 28 | 1008.8 |
| 20260504221852 | 17 | 9 | 8.0 | 14.5 | 0.00 | 0.00 | 0.00 | 27 | 1008.8 |
| 20260504221653 | 17 | 322 | 9.7 | 16.1 | 0.00 | 0.00 | 0.00 | 27 | 1008.8 |
| 20260504221610 | 17 | 324 | 9.7 | 16.1 | 0.00 | 0.00 | 0.00 | 27 | 1008.8 |
| 20260504221454 | 17 | 315 | 11.3 | 16.1 | 0.00 | 0.00 | 0.00 | 27 | 1008.6 |
| 20260504221253 | 17 | 296 | 11.3 | 17.7 | 0.00 | 0.00 | 0.00 | 28 | 1008.6 |
| 20260504221110 | 17 | 302 | 11.3 | 17.7 | 0.00 | 0.00 | 0.00 | 27 | 1008.6 |
| 20260504221052 | 17 | 300 | 11.3 | 17.7 | 0.00 | 0.00 | 0.00 | 27 | 1008.8 |
| 20260504220853 | 17 | 330 | 9.7 | 17.7 | 0.00 | 0.00 | 0.00 | 28 | 1008.8 |
| 20260504220651 | 17 | 344 | 9.7 | 17.7 | 0.00 | 0.00 | 0.00 | 29 | 1008.8 |
| 20260504220611 | 17 | 338 | 9.7 | 17.7 | 0.00 | 0.00 | 0.00 | 29 | 1008.8 |
| 20260504220452 | 17 | 355 | 9.7 | 17.7 | 0.00 | 0.00 | 0.00 | 28 | 1008.8 |
| 20260504220247 | 17 | 21 | 9.7 | 17.7 | 0.00 | 0.00 | 0.00 | 28 | 1008.8 |
| 20260504220109 | 17 | 9 | 9.7 | 24.1 | 0.00 | 0.00 | 0.00 | 27 | 1008.8 |
| 20260504220050 | 17 | 9 | 9.7 | 24.1 | 0.00 | 0.00 | 0.00 | 27 | 1008.8 |
| 20260504215848 | 17 | 52 | 8.0 | 24.1 | 0.00 | 0.00 | 0.00 | 29 | 1008.8 |
| 20260504215646 | 17 | 29 | 6.4 | 24.1 | 0.00 | 0.00 | 0.00 | 28 | 1008.8 |
| 20260504215610 | 17 | 20 | 6.4 | 24.1 | 0.00 | 0.00 | 0.00 | 28 | 1008.8 |
| 20260504215446 | 17 | 5 | 6.4 | 24.1 | 0.00 | 0.00 | 0.00 | 30 | 1008.8 |
| 20260504215246 | 17 | 22 | 4.8 | 24.1 | 0.00 | 0.00 | 0.00 | 30 | 1008.8 |
| 20260504215111 | 17 | 285 | 3.2 | 12.9 | 0.00 | 0.00 | 0.00 | 28 | 1008.8 |
| 20260504215047 | 17 | 288 | 3.2 | 11.3 | 0.00 | 0.00 | 0.00 | 28 | 1008.9 |
| 20260504214846 | 17 | 44 | 8.0 | 30.6 | 0.00 | 0.00 | 0.00 | 29 | 1008.9 |
| 20260504214647 | 17 | 153 | 11.3 | 30.6 | 0.00 | 0.00 | 0.00 | 29 | 1008.9 |
| 20260504214615 | 17 | 273 | 14.5 | 30.6 | 0.00 | 0.00 | 0.00 | 29 | 1009.1 |
| 20260504214611 | 17 | 217 | 11.3 | 30.6 | 0.00 | 0.00 | 0.00 | 29 | 1008.9 |
| 20260504214447 | 17 | 217 | 12.9 | 30.6 | 0.00 | 0.00 | 0.00 | 27 | 1009.0 |
| 20260504214248 | 17 | 142 | 14.5 | 30.6 | 0.00 | 0.00 | 0.00 | 29 | 1009.1 |
| 20260504214050 | 17 | 322 | 14.5 | 30.6 | 0.00 | 0.00 | 0.00 | 29 | 1009.2 |
| 20260504213847 | 17 | 338 | 12.9 | 30.6 | 0.00 | 0.00 | 0.00 | 30 | 1009.1 |
| 20260504213646 | 17 | 314 | 11.3 | 16.1 | 0.00 | 0.00 | 0.00 | 29 | 1009.1 |
| 20260504213610 | 17 | 303 | 11.3 | 16.1 | 0.00 | 0.00 | 0.00 | 29 | 1009.1 |
| 20260504213446 | 17 | 324 | 11.3 | 16.1 | 0.00 | 0.00 | 0.00 | 29 | 1009.1 |
| 20260504213248 | 17 | 305 | 11.3 | 17.7 | 0.00 | 0.00 | 0.00 | 28 | 1009.1 |
| 20260504213111 | 17 | 332 | 11.3 | 17.7 | 0.00 | 0.00 | 0.00 | 30 | 1009.2 |
| 20260504213045 | 17 | 330 | 11.3 | 17.7 | 0.00 | 0.00 | 0.00 | 30 | 1009.2 |
| 20260504212845 | 17 | 334 | 11.3 | 17.7 | 0.00 | 0.00 | 0.00 | 29 | 1009.2 |
| 20260504212648 | 17 | 310 | 12.9 | 19.3 | 0.00 | 0.00 | 0.00 | 29 | 1009.2 |
| 20260504212615 | 17 | 346 | 14.5 | 27.4 | 0.00 | 0.00 | 0.00 | 28 | 1009.2 |
| 20260504212609 | 17 | 313 | 12.9 | 22.5 | 0.00 | 0.00 | 0.00 | 29 | 1009.2 |
| 20260504212444 | 17 | 317 | 14.5 | 27.4 | 0.00 | 0.00 | 0.00 | 28 | 1009.2 |
| 20260504212244 | 17 | 306 | 14.5 | 27.4 | 0.00 | 0.00 | 0.00 | 29 | 1009.2 |
| 20260504212229 | 17 | 355 | 14.5 | 27.4 | 0.00 | 0.00 | 0.00 | 29 | 1009.1 |
| 20260504212046 | 17 | 327 | 14.5 | 27.4 | 0.00 | 0.00 | 0.00 | 28 | 1009.2 |
| 20260504211842 | 17 | 335 | 16.1 | 27.4 | 0.00 | 0.00 | 0.00 | 28 | 1009.2 |
| 20260504211720 | 17 | 336 | 14.5 | 27.4 | 0.00 | 0.00 | 0.00 | 28 | 1009.1 |
| 20260504211443 | 17 | 355 | 14.5 | 24.1 | 0.00 | 0.00 | 0.00 | 28 | 1009.1 |
| 20260504211243 | 17 | 344 | 14.5 | 24.1 | 0.00 | 0.00 | 0.00 | 28 | 1009.2 |
| 20260504211109 | 17 | 347 | 16.1 | 24.1 | 0.00 | 0.00 | 0.00 | 29 | 1009.1 |
| 20260504211042 | 17 | 340 | 16.1 | 24.1 | 0.00 | 0.00 | 0.00 | 29 | 1009.1 |
| 20260504210842 | 17 | 5 | 16.1 | 25.7 | 0.00 | 0.00 | 0.00 | 30 | 1009.1 |
| 20260504210642 | 17 | 344 | 16.1 | 25.7 | 0.00 | 0.00 | 0.00 | 29 | 1009.1 |
| 20260504210610 | 17 | 35 | 16.1 | 25.7 | 0.00 | 0.00 | 0.00 | 29 | 1009.1 |
| 20260504210441 | 17 | 334 | 16.1 | 25.7 | 0.00 | 0.00 | 0.00 | 29 | 1009.2 |
| 20260504210243 | 17 | 355 | 16.1 | 25.7 | 0.00 | 0.00 | 0.00 | 29 | 1009.2 |
| 20260504210110 | 17 | 0 | 16.1 | 25.7 | 0.00 | 0.00 | 0.00 | 29 | 1009.2 |
| 20260504210043 | 17 | 345 | 16.1 | 25.7 | 0.00 | 0.00 | 0.00 | 29 | 1009.2 |
| 20260504205843 | 17 | 347 | 14.5 | 25.7 | 0.00 | 0.00 | 0.00 | 29 | 1009.2 |
| 20260504205641 | 17 | 355 | 14.5 | 25.7 | 0.00 | 0.00 | 0.00 | 29 | 1009.2 |
| 20260504205617 | 17 | 346 | 20.9 | 32.2 | 0.00 | 0.00 | 0.00 | 28 | 1009.4 |
| 20260504205611 | 17 | 338 | 14.5 | 25.7 | 0.00 | 0.00 | 0.00 | 29 | 1009.2 |
| 20260504205441 | 17 | 11 | 12.9 | 25.7 | 0.00 | 0.00 | 0.00 | 27 | 1009.4 |
| 20260504205240 | 17 | 14 | 14.5 | 24.1 | 0.00 | 0.00 | 0.00 | 29 | 1009.4 |
| 20260504205109 | 17 | 41 | 14.5 | 29.0 | 0.00 | 0.00 | 0.00 | 28 | 1009.4 |
| 20260504205041 | 17 | 37 | 14.5 | 29.0 | 0.00 | 0.00 | 0.00 | 29 | 1009.2 |
| 20260504204841 | 17 | 355 | 16.1 | 29.0 | 0.00 | 0.00 | 0.00 | 28 | 1009.2 |
| 20260504204725 | 17 | 32 | 19.3 | 30.6 | 0.00 | 0.00 | 0.00 | 28 | 1009.4 |
| 20260504204610 | 17 | 5 | 19.3 | 30.6 | 0.00 | 0.00 | 0.00 | 28 | 1009.4 |
| 20260504204438 | 17 | 0 | 19.3 | 30.6 | 0.00 | 0.00 | 0.00 | 28 | 1009.4 |
| 20260504204238 | 17 | 346 | 20.9 | 32.2 | 0.00 | 0.00 | 0.00 | 28 | 1009.4 |
| 20260504204232 | 18 | 42 | 19.3 | 32.2 | 0.00 | 0.00 | 0.00 | 28 | 1009.1 |
| 20260504204037 | 18 | 343 | 20.9 | 32.2 | 0.00 | 0.00 | 0.00 | 28 | 1009.4 |
| 20260504203837 | 18 | 15 | 19.3 | 32.2 | 0.00 | 0.00 | 0.00 | 28 | 1009.2 |
| 20260504203721 | 18 | 15 | 19.3 | 32.2 | 0.00 | 0.00 | 0.00 | 28 | 1009.1 |
| 20260504203437 | 18 | 15 | 19.3 | 32.2 | 0.00 | 0.00 | 0.00 | 27 | 1009.1 |
| 20260504203235 | 18 | 5 | 17.7 | 30.6 | 0.00 | 0.00 | 0.00 | 27 | 1009.2 |
| 20260504203115 | 18 | 0 | 19.3 | 30.6 | 0.00 | 0.00 | 0.00 | 27 | 1009.2 |
| 20260504203110 | 18 | 344 | 17.7 | 30.6 | 0.00 | 0.00 | 0.00 | 26 | 1009.2 |
| 20260504203035 | 18 | 331 | 19.3 | 30.6 | 0.00 | 0.00 | 0.00 | 26 | 1009.2 |
| 20260504202836 | 18 | 338 | 19.3 | 30.6 | 0.00 | 0.00 | 0.00 | 27 | 1009.2 |
| 20260504202719 | 18 | 24 | 19.3 | 30.6 | 0.00 | 0.00 | 0.00 | 27 | 1009.2 |
| 20260504202434 | 18 | 342 | 19.3 | 30.6 | 0.00 | 0.00 | 0.00 | 27 | 1009.2 |
| 20260504202233 | 18 | 19 | 19.3 | 30.6 | 0.00 | 0.00 | 0.00 | 27 | 1009.4 |
| 20260504202109 | 18 | 351 | 20.9 | 30.6 | 0.00 | 0.00 | 0.00 | 26 | 1009.2 |
| 20260504202031 | 18 | 346 | 19.3 | 32.2 | 0.00 | 0.00 | 0.00 | 27 | 1009.2 |
| 20260504201831 | 18 | 355 | 20.9 | 32.2 | 0.00 | 0.00 | 0.00 | 26 | 1009.2 |
| 20260504201630 | 18 | 350 | 20.9 | 32.2 | 0.00 | 0.00 | 0.00 | 28 | 1009.4 |
| 20260504201611 | 18 | 9 | 20.9 | 32.2 | 0.00 | 0.00 | 0.00 | 28 | 1009.4 |
| 20260504201431 | 18 | 32 | 20.9 | 32.2 | 0.00 | 0.00 | 0.00 | 27 | 1009.4 |
| 20260504201229 | 18 | 355 | 20.9 | 32.2 | 0.00 | 0.00 | 0.00 | 27 | 1009.4 |
| 20260504201110 | 18 | 300 | 19.3 | 32.2 | 0.00 | 0.00 | 0.00 | 29 | 1009.4 |
| 20260504201029 | 18 | 34 | 19.3 | 32.2 | 0.00 | 0.00 | 0.00 | 28 | 1009.5 |
| 20260504200828 | 18 | 343 | 19.3 | 32.2 | 0.00 | 0.00 | 0.00 | 28 | 1009.5 |
| 20260504200628 | 18 | 330 | 19.3 | 32.2 | 0.00 | 0.00 | 0.00 | 28 | 1009.5 |
| 20260504200610 | 18 | 340 | 19.3 | 32.2 | 0.00 | 0.00 | 0.00 | 28 | 1009.5 |
| 20260504200427 | 18 | 296 | 19.3 | 30.6 | 0.00 | 0.00 | 0.00 | 28 | 1009.5 |
| 20260504200226 | 18 | 333 | 19.3 | 30.6 | 0.00 | 0.00 | 0.00 | 28 | 1009.5 |
| 20260504200111 | 18 | 306 | 19.3 | 30.6 | 0.00 | 0.00 | 0.00 | 30 | 1009.5 |
| 20260504200027 | 18 | 313 | 19.3 | 30.6 | 0.00 | 0.00 | 0.00 | 30 | 1009.5 |
| 20260504195827 | 18 | 307 | 20.9 | 30.6 | 0.00 | 0.00 | 0.00 | 29 | 1009.5 |
| 20260504195628 | 17 | 342 | 19.3 | 30.6 | 0.00 | 0.00 | 0.00 | 30 | 1009.5 |
| 20260504195610 | 17 | 335 | 19.3 | 30.6 | 0.00 | 0.00 | 0.00 | 29 | 1009.5 |
| 20260504195426 | 17 | 309 | 19.3 | 33.8 | 0.00 | 0.00 | 0.00 | 29 | 1009.5 |
| 20260504195226 | 18 | 322 | 19.3 | 33.8 | 0.00 | 0.00 | 0.00 | 28 | 1009.6 |
| 20260504195116 | 18 | 327 | 19.3 | 33.8 | 0.00 | 0.00 | 0.00 | 26 | 1009.5 |
| 20260504195110 | 18 | 324 | 19.3 | 33.8 | 0.00 | 0.00 | 0.00 | 28 | 1009.6 |
| 20260504195027 | 18 | 328 | 19.3 | 33.8 | 0.00 | 0.00 | 0.00 | 28 | 1009.6 |
| 20260504194827 | 18 | 327 | 19.3 | 33.8 | 0.00 | 0.00 | 0.00 | 27 | 1009.5 |
| 20260504194736 | 18 | 355 | 17.7 | 25.7 | 0.00 | 0.00 | 0.00 | 26 | 1009.6 |
| 20260504194718 | 18 | 18 | 19.3 | 33.8 | 0.00 | 0.00 | 0.00 | 26 | 1009.5 |
| 20260504194427 | 18 | 313 | 17.7 | 27.4 | 0.00 | 0.00 | 0.00 | 27 | 1009.5 |
| 20260504194231 | 18 | 342 | 17.7 | 25.7 | 0.00 | 0.00 | 0.00 | 27 | 1009.6 |
| 20260504194026 | 18 | 340 | 16.1 | 25.7 | 0.00 | 0.00 | 0.00 | 26 | 1009.5 |
| 20260504193827 | 18 | 338 | 16.1 | 25.7 | 0.00 | 0.00 | 0.00 | 27 | 1009.5 |
| 20260504193626 | 18 | 5 | 16.1 | 29.0 | 0.00 | 0.00 | 0.00 | 28 | 1009.5 |
| 20260504193610 | 18 | 339 | 16.1 | 29.0 | 0.00 | 0.00 | 0.00 | 28 | 1009.5 |
| 20260504193427 | 18 | 0 | 17.7 | 30.6 | 0.00 | 0.00 | 0.00 | 26 | 1009.5 |
| 20260504193225 | 18 | 5 | 17.7 | 30.6 | 0.00 | 0.00 | 0.00 | 27 | 1009.5 |
| 20260504193109 | 18 | 341 | 19.3 | 32.2 | 0.00 | 0.00 | 0.00 | 28 | 1009.5 |
| 20260504193028 | 18 | 330 | 19.3 | 32.2 | 0.00 | 0.00 | 0.00 | 27 | 1009.5 |
| 20260504192826 | 18 | 330 | 19.3 | 32.2 | 0.00 | 0.00 | 0.00 | 29 | 1009.5 |
| 20260504192628 | 18 | 0 | 20.9 | 32.2 | 0.00 | 0.00 | 0.00 | 27 | 1009.6 |
| 20260504192609 | 17 | 326 | 20.9 | 32.2 | 0.00 | 0.00 | 0.00 | 28 | 1009.6 |
| 20260504192427 | 17 | 349 | 22.5 | 32.2 | 0.00 | 0.00 | 0.00 | 27 | 1009.5 |
| 20260504192225 | 17 | 339 | 22.5 | 33.8 | 0.00 | 0.00 | 0.00 | 27 | 1009.5 |
| 20260504192109 | 17 | 355 | 22.5 | 33.8 | 0.00 | 0.00 | 0.00 | 27 | 1009.5 |
| 20260504192028 | 17 | 0 | 22.5 | 33.8 | 0.00 | 0.00 | 0.00 | 27 | 1009.5 |
| 20260504191826 | 17 | 331 | 24.1 | 40.2 | 0.00 | 0.00 | 0.00 | 27 | 1009.5 |
| 20260504191628 | 18 | 319 | 22.5 | 40.2 | 0.00 | 0.00 | 0.00 | 28 | 1009.4 |
| 20260504191609 | 18 | 323 | 22.5 | 40.2 | 0.00 | 0.00 | 0.00 | 28 | 1009.4 |
| 20260504191427 | 18 | 321 | 22.5 | 40.2 | 0.00 | 0.00 | 0.00 | 27 | 1009.4 |
| 20260504191226 | 18 | 324 | 20.9 | 40.2 | 0.00 | 0.00 | 0.00 | 27 | 1009.4 |
| 20260504191110 | 18 | 299 | 19.3 | 40.2 | 0.00 | 0.00 | 0.00 | 26 | 1009.4 |
| 20260504191027 | 18 | 319 | 19.3 | 40.2 | 0.00 | 0.00 | 0.00 | 26 | 1009.4 |
| 20260504190825 | 18 | 340 | 17.7 | 32.2 | 0.00 | 0.00 | 0.00 | 26 | 1009.4 |
| 20260504190626 | 18 | 38 | 17.7 | 32.2 | 0.00 | 0.00 | 0.00 | 25 | 1009.4 |
| 20260504190609 | 18 | 17 | 17.7 | 32.2 | 0.00 | 0.00 | 0.00 | 25 | 1009.4 |
| 20260504190426 | 18 | 46 | 17.7 | 32.2 | 0.00 | 0.00 | 0.00 | 26 | 1009.4 |
| 20260504190227 | 18 | 319 | 19.3 | 33.8 | 0.00 | 0.00 | 0.00 | 25 | 1009.1 |
| 20260504190115 | 19 | 13 | 19.3 | 33.8 | 0.00 | 0.00 | 0.00 | 25 | 1009.1 |
| 20260504190110 | 18 | 336 | 19.3 | 33.8 | 0.00 | 0.00 | 0.00 | 25 | 1009.2 |
| 20260504190026 | 18 | 348 | 20.9 | 33.8 | 0.00 | 0.00 | 0.00 | 25 | 1009.2 |
| 20260504185827 | 18 | 355 | 19.3 | 33.8 | 0.00 | 0.00 | 0.00 | 25 | 1009.1 |
| 20260504185718 | 19 | 5 | 19.3 | 33.8 | 0.00 | 0.00 | 0.00 | 25 | 1009.1 |
| 20260504185427 | 19 | 348 | 17.7 | 33.8 | 0.00 | 0.00 | 0.00 | 24 | 1009.1 |
| 20260504185226 | 19 | 43 | 17.7 | 32.2 | 0.00 | 0.00 | 0.00 | 24 | 1009.1 |
| 20260504185110 | 19 | 9 | 16.1 | 32.2 | 0.00 | 0.00 | 0.00 | 24 | 1009.1 |
| 20260504185025 | 19 | 349 | 14.5 | 29.0 | 0.00 | 0.00 | 0.00 | 23 | 1009.2 |